| time (UTC) | temp F | wind direction | speed MPH | gust MPH | rain 1hr in | rain 24hr in | rain mn in | humidity % | barometer mb |
| 20260831214756 | 92 | 31 | 0.0 | 2.0 | 0.00 | 0.00 | 0.00 | 60 | 1013.3 |
| 20260831214655 | 92 | 31 | 0.0 | 2.0 | 0.00 | 0.00 | 0.00 | 60 | 1013.4 |
| 20260831214555 | 92 | 31 | 0.0 | 2.0 | 0.00 | 0.00 | 0.00 | 60 | 1013.4 |
| 20260831214456 | 92 | 31 | 0.0 | 2.0 | 0.00 | 0.00 | 0.00 | 60 | 1013.4 |
| 20260831214357 | 92 | 31 | 0.0 | 1.0 | 0.00 | 0.00 | 0.00 | 60 | 1013.5 |
| 20260831214155 | 92 | 31 | 0.0 | 1.0 | 0.00 | 0.00 | 0.00 | 60 | 1013.5 |
| 20260831214056 | 92 | 31 | 0.0 | 1.0 | 0.00 | 0.00 | 0.00 | 60 | 1013.4 |
| 20260831213959 | 92 | 31 | 0.0 | 1.0 | 0.00 | 0.00 | 0.00 | 60 | 1013.5 |
| 20260831213855 | 92 | 31 | 0.0 | 1.0 | 0.00 | 0.00 | 0.00 | 60 | 1013.5 |
| 20260831213557 | 92 | 31 | 0.0 | 1.0 | 0.00 | 0.00 | 0.00 | 60 | 1013.5 |
| 20260831213355 | 92 | 31 | 0.0 | 1.0 | 0.00 | 0.00 | 0.00 | 60 | 1013.5 |
| 20260831213256 | 92 | 31 | 0.0 | 1.0 | 0.00 | 0.00 | 0.00 | 60 | 1013.5 |
| 20260831213156 | 92 | 31 | 0.0 | 1.0 | 0.00 | 0.00 | 0.00 | 60 | 1013.5 |
| 20260831213054 | 92 | 31 | 0.0 | 1.0 | 0.00 | 0.00 | 0.00 | 60 | 1013.6 |
| 20260831212956 | 92 | 31 | 0.0 | 1.0 | 0.00 | 0.00 | 0.00 | 60 | 1013.5 |
| 20260831212856 | 92 | 31 | 0.0 | 1.0 | 0.00 | 0.00 | 0.00 | 60 | 1013.6 |
| 20260831212757 | 92 | 31 | 0.0 | 1.0 | 0.00 | 0.00 | 0.00 | 60 | 1013.6 |
| 20260831212656 | 92 | 31 | 0.0 | 1.0 | 0.00 | 0.00 | 0.00 | 60 | 1013.6 |
| 20260831212555 | 92 | 31 | 0.0 | 1.0 | 0.00 | 0.00 | 0.00 | 60 | 1013.6 |
| 20260831212457 | 92 | 31 | 0.0 | 1.0 | 0.00 | 0.00 | 0.00 | 60 | 1013.5 |
| 20260831212357 | 92 | 31 | 1.0 | 4.0 | 0.00 | 0.00 | 0.00 | 60 | 1013.6 |
| 20260831212256 | 92 | 31 | 0.0 | 4.0 | 0.00 | 0.00 | 0.00 | 60 | 1013.6 |
| 20260831212155 | 92 | 31 | 0.0 | 4.0 | 0.00 | 0.00 | 0.00 | 60 | 1013.6 |
| 20260831212054 | 92 | 31 | 1.0 | 4.0 | 0.00 | 0.00 | 0.00 | 60 | 1013.7 |
| 20260831211958 | 92 | 31 | 0.0 | 4.0 | 0.00 | 0.00 | 0.00 | 60 | 1013.6 |
| 20260831211857 | 92 | 31 | 0.0 | 4.0 | 0.00 | 0.00 | 0.00 | 59 | 1013.7 |
| 20260831211755 | 92 | 31 | 0.0 | 4.0 | 0.00 | 0.00 | 0.00 | 60 | 1013.7 |
| 20260831211456 | 92 | 31 | 0.0 | 4.0 | 0.00 | 0.00 | 0.00 | 59 | 1013.7 |
| 20260831211355 | 92 | 31 | 1.0 | 4.0 | 0.00 | 0.00 | 0.00 | 59 | 1013.7 |
| 20260831211255 | 92 | 31 | 1.0 | 4.0 | 0.00 | 0.00 | 0.00 | 59 | 1013.8 |
| 20260831211157 | 92 | 31 | 0.0 | 4.0 | 0.00 | 0.00 | 0.00 | 59 | 1013.8 |
| 20260831210958 | 92 | 31 | 2.0 | 4.0 | 0.00 | 0.00 | 0.00 | 59 | 1013.8 |
| 20260831210854 | 92 | 31 | 2.0 | 4.0 | 0.00 | 0.00 | 0.00 | 59 | 1013.8 |
| 20260831210757 | 92 | 6 | 2.0 | 3.0 | 0.00 | 0.00 | 0.00 | 59 | 1013.9 |
| 20260831210654 | 92 | 359 | 0.0 | 3.0 | 0.00 | 0.00 | 0.00 | 59 | 1013.8 |
| 20260831210555 | 92 | 360 | 0.0 | 3.0 | 0.00 | 0.00 | 0.00 | 59 | 1013.9 |
| 20260831210456 | 92 | 360 | 0.0 | 3.0 | 0.00 | 0.00 | 0.00 | 59 | 1013.9 |
| 20260831210357 | 92 | 360 | 0.0 | 3.0 | 0.00 | 0.00 | 0.00 | 59 | 1013.9 |
| 20260831210256 | 92 | 360 | 0.0 | 3.0 | 0.00 | 0.00 | 0.00 | 58 | 1013.9 |
| 20260831210155 | 92 | 360 | 0.0 | 3.0 | 0.00 | 0.00 | 0.00 | 59 | 1013.9 |
| 20260831210055 | 92 | 360 | 0.0 | 3.0 | 0.00 | 0.00 | 0.00 | 58 | 1013.9 |
| 20260831210001 | 92 | 360 | 2.0 | 3.0 | 0.00 | 0.00 | 0.00 | 58 | 1013.9 |
| 20260831205857 | 92 | 358 | 0.0 | 2.0 | 0.00 | 0.00 | 0.00 | 58 | 1013.9 |
| 20260831205758 | 92 | 358 | 0.0 | 2.0 | 0.00 | 0.00 | 0.00 | 58 | 1014.0 |
| 20260831205558 | 92 | 358 | 1.0 | 2.0 | 0.00 | 0.00 | 0.00 | 58 | 1014.0 |
| 20260831205457 | 92 | 358 | 1.0 | 2.0 | 0.00 | 0.00 | 0.00 | 58 | 1014.0 |
| 20260831205356 | 92 | 358 | 0.0 | 4.0 | 0.00 | 0.00 | 0.00 | 58 | 1014.1 |
| 20260831205256 | 92 | 358 | 0.0 | 4.0 | 0.00 | 0.00 | 0.00 | 59 | 1014.1 |
| 20260831205156 | 92 | 358 | 0.0 | 4.0 | 0.00 | 0.00 | 0.00 | 59 | 1014.1 |
| 20260831205057 | 92 | 358 | 0.0 | 4.0 | 0.00 | 0.00 | 0.00 | 58 | 1014.1 |
| 20260831204959 | 92 | 358 | 1.0 | 4.0 | 0.00 | 0.00 | 0.00 | 58 | 1014.1 |
| 20260831204857 | 92 | 358 | 0.0 | 4.0 | 0.00 | 0.00 | 0.00 | 58 | 1014.1 |
| 20260831204655 | 92 | 358 | 0.0 | 4.0 | 0.00 | 0.00 | 0.00 | 58 | 1014.2 |
| 20260831204458 | 92 | 358 | 1.0 | 4.0 | 0.00 | 0.00 | 0.00 | 57 | 1014.1 |
| 20260831204155 | 93 | 17 | 4.0 | 4.0 | 0.00 | 0.00 | 0.00 | 57 | 1014.2 |
| 20260831204055 | 93 | 23 | 0.0 | 2.0 | 0.00 | 0.00 | 0.00 | 57 | 1014.2 |
| 20260831203958 | 93 | 23 | 0.0 | 2.0 | 0.00 | 0.00 | 0.00 | 58 | 1014.2 |
| 20260831203758 | 93 | 23 | 0.0 | 4.0 | 0.00 | 0.00 | 0.00 | 58 | 1014.2 |
| 20260831203657 | 93 | 23 | 1.0 | 4.0 | 0.00 | 0.00 | 0.00 | 58 | 1014.2 |
| 20260831203558 | 93 | 23 | 0.0 | 4.0 | 0.00 | 0.00 | 0.00 | 58 | 1014.2 |
| 20260831203458 | 93 | 23 | 0.0 | 4.0 | 0.00 | 0.00 | 0.00 | 58 | 1014.2 |
| 20260831203257 | 93 | 23 | 0.0 | 4.0 | 0.00 | 0.00 | 0.00 | 58 | 1014.2 |
| 20260831203158 | 93 | 23 | 0.0 | 4.0 | 0.00 | 0.00 | 0.00 | 58 | 1014.2 |
| 20260831202957 | 93 | 23 | 1.0 | 4.0 | 0.00 | 0.00 | 0.00 | 58 | 1014.2 |
| 20260831202756 | 93 | 23 | 2.0 | 4.0 | 0.00 | 0.00 | 0.00 | 58 | 1014.2 |
| 20260831202657 | 93 | 27 | 0.0 | 4.0 | 0.00 | 0.00 | 0.00 | 58 | 1014.2 |
| 20260831202557 | 93 | 28 | 0.0 | 4.0 | 0.00 | 0.00 | 0.00 | 58 | 1014.2 |
| 20260831202356 | 93 | 29 | 0.0 | 7.0 | 0.00 | 0.00 | 0.00 | 57 | 1014.3 |
| 20260831202257 | 93 | 28 | 1.0 | 7.0 | 0.00 | 0.00 | 0.00 | 57 | 1014.3 |
| 20260831202158 | 93 | 29 | 1.0 | 7.0 | 0.00 | 0.00 | 0.00 | 57 | 1014.3 |
| 20260831202057 | 93 | 29 | 0.0 | 7.0 | 0.00 | 0.00 | 0.00 | 57 | 1014.3 |
| 20260831201857 | 93 | 5 | 0.0 | 7.0 | 0.00 | 0.00 | 0.00 | 57 | 1014.3 |
| 20260831201756 | 93 | 5 | 0.0 | 7.0 | 0.00 | 0.00 | 0.00 | 57 | 1014.2 |
| 20260831201657 | 93 | 5 | 1.0 | 7.0 | 0.00 | 0.00 | 0.00 | 57 | 1014.3 |
| 20260831201558 | 93 | 7 | 2.0 | 5.0 | 0.00 | 0.00 | 0.00 | 57 | 1014.3 |
| 20260831201457 | 93 | 7 | 1.0 | 5.0 | 0.00 | 0.00 | 0.00 | 57 | 1014.2 |
| 20260831201356 | 94 | 7 | 1.0 | 5.0 | 0.00 | 0.00 | 0.00 | 57 | 1014.2 |
| 20260831201255 | 94 | 7 | 3.0 | 5.0 | 0.00 | 0.00 | 0.00 | 56 | 1014.2 |
| 20260831201055 | 93 | 7 | 1.0 | 5.0 | 0.00 | 0.00 | 0.00 | 56 | 1014.3 |
| 20260831200759 | 93 | 21 | 2.0 | 4.0 | 0.00 | 0.00 | 0.00 | 56 | 1014.2 |
| 20260831200657 | 94 | 21 | 0.0 | 4.0 | 0.00 | 0.00 | 0.00 | 56 | 1014.3 |
| 20260831200556 | 94 | 21 | 1.0 | 4.0 | 0.00 | 0.00 | 0.00 | 56 | 1014.3 |
| 20260831200459 | 94 | 21 | 0.0 | 4.0 | 0.00 | 0.00 | 0.00 | 57 | 1014.4 |
| 20260831200357 | 93 | 35 | 0.0 | 4.0 | 0.00 | 0.00 | 0.00 | 56 | 1014.4 |
| 20260831200257 | 93 | 35 | 1.0 | 4.0 | 0.00 | 0.00 | 0.00 | 56 | 1014.5 |
| 20260831200157 | 93 | 34 | 4.0 | 4.0 | 0.00 | 0.00 | 0.00 | 56 | 1014.5 |
| 20260831200000 | 93 | 34 | 0.0 | 4.0 | 0.00 | 0.00 | 0.00 | 57 | 1014.5 |
| 20260831195857 | 93 | 34 | 2.0 | 4.0 | 0.00 | 0.00 | 0.00 | 57 | 1014.5 |
| 20260831195757 | 93 | 34 | 0.0 | 4.0 | 0.00 | 0.00 | 0.00 | 57 | 1014.5 |
| 20260831195657 | 93 | 34 | 0.0 | 4.0 | 0.00 | 0.00 | 0.00 | 57 | 1014.4 |
| 20260831195557 | 93 | 34 | 2.0 | 4.0 | 0.00 | 0.00 | 0.00 | 58 | 1014.4 |
| 20260831195457 | 93 | 33 | 0.0 | 4.0 | 0.00 | 0.00 | 0.00 | 57 | 1014.4 |
| 20260831195357 | 93 | 33 | 0.0 | 4.0 | 0.00 | 0.00 | 0.00 | 58 | 1014.4 |
| 20260831195257 | 93 | 33 | 0.0 | 4.0 | 0.00 | 0.00 | 0.00 | 58 | 1014.5 |
| 20260831195057 | 93 | 31 | 2.0 | 4.0 | 0.00 | 0.00 | 0.00 | 58 | 1014.4 |
| 20260831194959 | 93 | 35 | 0.0 | 4.0 | 0.00 | 0.00 | 0.00 | 59 | 1014.5 |
| 20260831194856 | 93 | 35 | 1.0 | 4.0 | 0.00 | 0.00 | 0.00 | 60 | 1014.5 |
| 20260831194757 | 93 | 35 | 0.0 | 4.0 | 0.00 | 0.00 | 0.00 | 60 | 1014.5 |
| 20260831194656 | 93 | 35 | 0.0 | 4.0 | 0.00 | 0.00 | 0.00 | 60 | 1014.6 |
| 20260831194558 | 93 | 35 | 0.0 | 4.0 | 0.00 | 0.00 | 0.00 | 60 | 1014.6 |
| 20260831194357 | 93 | 35 | 0.0 | 4.0 | 0.00 | 0.00 | 0.00 | 61 | 1014.6 |
| 20260831194158 | 93 | 32 | 0.0 | 4.0 | 0.00 | 0.00 | 0.00 | 61 | 1014.7 |
| 20260831194057 | 93 | 31 | 1.0 | 4.0 | 0.00 | 0.00 | 0.00 | 62 | 1014.7 |
| 20260831193958 | 93 | 31 | 1.0 | 4.0 | 0.00 | 0.00 | 0.00 | 61 | 1014.7 |
| 20260831193857 | 93 | 31 | 2.0 | 4.0 | 0.00 | 0.00 | 0.00 | 62 | 1014.7 |
| 20260831193758 | 93 | 302 | 0.0 | 4.0 | 0.00 | 0.00 | 0.00 | 62 | 1014.7 |
| 20260831193656 | 93 | 20 | 0.0 | 4.0 | 0.00 | 0.00 | 0.00 | 62 | 1014.7 |
| 20260831193457 | 93 | 17 | 0.0 | 4.0 | 0.00 | 0.00 | 0.00 | 62 | 1014.8 |
| 20260831193357 | 93 | 17 | 1.0 | 4.0 | 0.00 | 0.00 | 0.00 | 62 | 1014.8 |
| 20260831193156 | 93 | 20 | 2.0 | 2.0 | 0.00 | 0.00 | 0.00 | 62 | 1014.8 |
| 20260831192959 | 93 | 20 | 2.0 | 3.0 | 0.00 | 0.00 | 0.00 | 62 | 1014.9 |
| 20260831192857 | 93 | 20 | 0.0 | 3.0 | 0.00 | 0.00 | 0.00 | 62 | 1014.8 |
| 20260831192758 | 93 | 20 | 1.0 | 3.0 | 0.00 | 0.00 | 0.00 | 62 | 1014.9 |
| 20260831192557 | 93 | 20 | 1.0 | 3.0 | 0.00 | 0.00 | 0.00 | 62 | 1014.9 |
| 20260831192459 | 93 | 20 | 0.0 | 3.0 | 0.00 | 0.00 | 0.00 | 62 | 1014.9 |
| 20260831192157 | 94 | 19 | 0.0 | 4.0 | 0.00 | 0.00 | 0.00 | 61 | 1015.0 |
| 20260831192055 | 94 | 340 | 1.0 | 4.0 | 0.00 | 0.00 | 0.00 | 61 | 1015.0 |
| 20260831191957 | 94 | 340 | 2.0 | 4.0 | 0.00 | 0.00 | 0.00 | 61 | 1015.0 |
| 20260831191857 | 94 | 49 | 0.0 | 4.0 | 0.00 | 0.00 | 0.00 | 61 | 1015.0 |
| 20260831191758 | 94 | 49 | 0.0 | 4.0 | 0.00 | 0.00 | 0.00 | 61 | 1015.1 |
| 20260831191657 | 94 | 49 | 0.0 | 4.0 | 0.00 | 0.00 | 0.00 | 61 | 1015.0 |
| 20260831191558 | 94 | 49 | 0.0 | 4.0 | 0.00 | 0.00 | 0.00 | 61 | 1015.1 |
| 20260831191457 | 94 | 33 | 1.0 | 3.0 | 0.00 | 0.00 | 0.00 | 61 | 1015.0 |
| 20260831191358 | 94 | 33 | 0.0 | 3.0 | 0.00 | 0.00 | 0.00 | 61 | 1015.0 |
| 20260831191158 | 94 | 29 | 1.0 | 3.0 | 0.00 | 0.00 | 0.00 | 61 | 1015.0 |
| 20260831191055 | 94 | 29 | 1.0 | 3.0 | 0.00 | 0.00 | 0.00 | 61 | 1015.0 |
| 20260831190959 | 94 | 29 | 0.0 | 3.0 | 0.00 | 0.00 | 0.00 | 61 | 1015.0 |
| 20260831190857 | 94 | 29 | 0.0 | 3.0 | 0.00 | 0.00 | 0.00 | 60 | 1015.0 |
| 20260831190756 | 94 | 29 | 0.0 | 3.0 | 0.00 | 0.00 | 0.00 | 60 | 1015.1 |
| 20260831190657 | 94 | 29 | 0.0 | 3.0 | 0.00 | 0.00 | 0.00 | 59 | 1015.0 |
| 20260831190558 | 94 | 19 | 1.0 | 3.0 | 0.00 | 0.00 | 0.00 | 58 | 1014.9 |
| 20260831190457 | 94 | 19 | 2.0 | 3.0 | 0.00 | 0.00 | 0.00 | 58 | 1014.9 |
| 20260831190358 | 94 | 97 | 0.0 | 3.0 | 0.00 | 0.00 | 0.00 | 58 | 1014.9 |
| 20260831190256 | 94 | 97 | 0.0 | 3.0 | 0.00 | 0.00 | 0.00 | 57 | 1014.9 |
| 20260831190057 | 94 | 97 | 0.0 | 3.0 | 0.00 | 0.00 | 0.00 | 57 | 1014.9 |
| 20260831190000 | 94 | 97 | 0.0 | 3.0 | 0.00 | 0.00 | 0.00 | 57 | 1014.9 |
| 20260831185856 | 94 | 97 | 0.0 | 3.0 | 0.00 | 0.00 | 0.00 | 57 | 1014.9 |
| 20260831185757 | 94 | 97 | 0.0 | 4.0 | 0.00 | 0.00 | 0.00 | 57 | 1014.9 |
| 20260831185657 | 94 | 97 | 0.0 | 4.0 | 0.00 | 0.00 | 0.00 | 58 | 1014.9 |
| 20260831185558 | 94 | 97 | 1.0 | 4.0 | 0.00 | 0.00 | 0.00 | 58 | 1014.9 |
| 20260831185458 | 94 | 134 | 1.0 | 4.0 | 0.00 | 0.00 | 0.00 | 58 | 1015.0 |
| 20260831185358 | 94 | 186 | 0.0 | 4.0 | 0.00 | 0.00 | 0.00 | 58 | 1015.0 |
| 20260831185257 | 94 | 186 | 0.0 | 5.0 | 0.00 | 0.00 | 0.00 | 59 | 1014.9 |
| 20260831185057 | 94 | 185 | 0.0 | 5.0 | 0.00 | 0.00 | 0.00 | 59 | 1015.1 |
| 20260831184959 | 93 | 187 | 1.0 | 5.0 | 0.00 | 0.00 | 0.00 | 59 | 1015.2 |
| 20260831184857 | 93 | 52 | 1.0 | 5.0 | 0.00 | 0.00 | 0.00 | 59 | 1015.2 |
| 20260831184657 | 93 | 23 | 0.0 | 5.0 | 0.00 | 0.00 | 0.00 | 59 | 1015.2 |
| 20260831184558 | 93 | 21 | 1.0 | 5.0 | 0.00 | 0.00 | 0.00 | 59 | 1015.2 |
| 20260831184455 | 93 | 21 | 2.0 | 5.0 | 0.00 | 0.00 | 0.00 | 59 | 1015.2 |
| 20260831184257 | 94 | 63 | 0.0 | 3.0 | 0.00 | 0.00 | 0.00 | 59 | 1015.2 |
| 20260831184157 | 94 | 62 | 1.0 | 2.0 | 0.00 | 0.00 | 0.00 | 59 | 1015.2 |
| 20260831184056 | 94 | 63 | 0.0 | 2.0 | 0.00 | 0.00 | 0.00 | 59 | 1015.2 |
| 20260831183959 | 94 | 63 | 0.0 | 3.0 | 0.00 | 0.00 | 0.00 | 59 | 1015.1 |
| 20260831183855 | 94 | 63 | 0.0 | 3.0 | 0.00 | 0.00 | 0.00 | 59 | 1015.2 |
| 20260831183755 | 94 | 63 | 1.0 | 3.0 | 0.00 | 0.00 | 0.00 | 60 | 1015.2 |
| 20260831183656 | 94 | 63 | 0.0 | 3.0 | 0.00 | 0.00 | 0.00 | 59 | 1015.2 |
| 20260831183558 | 94 | 63 | 2.0 | 3.0 | 0.00 | 0.00 | 0.00 | 59 | 1015.3 |
| 20260831183356 | 94 | 65 | 0.0 | 3.0 | 0.00 | 0.00 | 0.00 | 59 | 1015.3 |
| 20260831183156 | 94 | 65 | 3.0 | 3.0 | 0.00 | 0.00 | 0.00 | 59 | 1015.3 |
| 20260831183057 | 94 | 69 | 0.0 | 3.0 | 0.00 | 0.00 | 0.00 | 60 | 1015.3 |
| 20260831182857 | 94 | 69 | 0.0 | 3.0 | 0.00 | 0.00 | 0.00 | 60 | 1015.3 |
| 20260831182758 | 94 | 69 | 0.0 | 3.0 | 0.00 | 0.00 | 0.00 | 60 | 1015.3 |
| 20260831182357 | 94 | 69 | 0.0 | 2.0 | 0.00 | 0.00 | 0.00 | 59 | 1015.3 |
| 20260831182257 | 94 | 70 | 1.0 | 4.0 | 0.00 | 0.00 | 0.00 | 59 | 1015.3 |
| 20260831182156 | 94 | 69 | 1.0 | 4.0 | 0.00 | 0.00 | 0.00 | 60 | 1015.3 |
| 20260831182055 | 94 | 69 | 0.0 | 4.0 | 0.00 | 0.00 | 0.00 | 60 | 1015.3 |
| 20260831181958 | 93 | 69 | 0.0 | 4.0 | 0.00 | 0.00 | 0.00 | 60 | 1015.3 |
| 20260831181857 | 93 | 69 | 0.0 | 4.0 | 0.00 | 0.00 | 0.00 | 60 | 1015.3 |
| 20260831181757 | 93 | 69 | 0.0 | 4.0 | 0.00 | 0.00 | 0.00 | 60 | 1015.4 |
| 20260831181655 | 93 | 69 | 0.0 | 4.0 | 0.00 | 0.00 | 0.00 | 60 | 1015.4 |
| 20260831181456 | 93 | 109 | 0.0 | 2.0 | 0.00 | 0.00 | 0.00 | 60 | 1015.4 |
| 20260831181358 | 93 | 109 | 0.0 | 2.0 | 0.00 | 0.00 | 0.00 | 60 | 1015.4 |
| 20260831181255 | 93 | 109 | 0.0 | 2.0 | 0.00 | 0.00 | 0.00 | 60 | 1015.4 |
| 20260831181156 | 94 | 109 | 0.0 | 2.0 | 0.00 | 0.00 | 0.00 | 59 | 1015.4 |
| 20260831181057 | 94 | 109 | 0.0 | 2.0 | 0.00 | 0.00 | 0.00 | 59 | 1015.5 |
| 20260831180959 | 94 | 109 | 0.0 | 3.0 | 0.00 | 0.00 | 0.00 | 60 | 1015.5 |
| 20260831180855 | 94 | 109 | 1.0 | 3.0 | 0.00 | 0.00 | 0.00 | 60 | 1015.5 |
| 20260831180756 | 94 | 109 | 0.0 | 3.0 | 0.00 | 0.00 | 0.00 | 60 | 1015.5 |
| 20260831180455 | 94 | 109 | 0.0 | 3.0 | 0.00 | 0.00 | 0.00 | 60 | 1015.6 |
| 20260831180157 | 94 | 109 | 0.0 | 4.0 | 0.00 | 0.00 | 0.00 | 59 | 1015.6 |
| 20260831180056 | 94 | 109 | 0.0 | 4.0 | 0.00 | 0.00 | 0.00 | 59 | 1015.7 |
| 20260831180004 | 94 | 109 | 1.0 | 4.0 | 0.00 | 0.00 | 0.00 | 59 | 1015.7 |
| 20260831175857 | 94 | 109 | 0.0 | 4.0 | 0.00 | 0.00 | 0.00 | 59 | 1015.7 |
| 20260831175758 | 94 | 109 | 0.0 | 4.0 | 0.00 | 0.00 | 0.00 | 59 | 1015.7 |
| 20260831175655 | 94 | 109 | 1.0 | 4.0 | 0.00 | 0.00 | 0.00 | 60 | 1015.7 |
| 20260831175556 | 94 | 110 | 0.0 | 4.0 | 0.00 | 0.00 | 0.00 | 60 | 1015.7 |
| 20260831175357 | 94 | 13 | 0.0 | 3.0 | 0.00 | 0.00 | 0.00 | 60 | 1015.7 |
| 20260831175258 | 94 | 13 | 0.0 | 3.0 | 0.00 | 0.00 | 0.00 | 60 | 1015.7 |
| 20260831175156 | 94 | 13 | 1.0 | 3.0 | 0.00 | 0.00 | 0.00 | 60 | 1015.7 |
| 20260831175055 | 94 | 13 | 0.0 | 3.0 | 0.00 | 0.00 | 0.00 | 60 | 1015.7 |
| 20260831174956 | 94 | 13 | 0.0 | 3.0 | 0.00 | 0.00 | 0.00 | 59 | 1015.7 |
| 20260831174857 | 94 | 13 | 2.0 | 3.0 | 0.00 | 0.00 | 0.00 | 59 | 1015.8 |
| 20260831174755 | 94 | 7 | 0.0 | 2.0 | 0.00 | 0.00 | 0.00 | 60 | 1015.7 |
| 20260831174558 | 93 | 7 | 0.0 | 2.0 | 0.00 | 0.00 | 0.00 | 59 | 1015.8 |
| 20260831174455 | 93 | 7 | 0.0 | 3.0 | 0.00 | 0.00 | 0.00 | 59 | 1015.8 |
| 20260831174356 | 93 | 7 | 0.0 | 3.0 | 0.00 | 0.00 | 0.00 | 59 | 1015.7 |
| 20260831174257 | 93 | 7 | 1.0 | 3.0 | 0.00 | 0.00 | 0.00 | 59 | 1015.8 |
| 20260831174157 | 93 | 7 | 0.0 | 3.0 | 0.00 | 0.00 | 0.00 | 59 | 1015.8 |
| 20260831173957 | 93 | 7 | 2.0 | 3.0 | 0.00 | 0.00 | 0.00 | 59 | 1015.8 |
| 20260831173855 | 93 | 7 | 0.0 | 3.0 | 0.00 | 0.00 | 0.00 | 59 | 1015.8 |
| 20260831173757 | 93 | 7 | 0.0 | 3.0 | 0.00 | 0.00 | 0.00 | 59 | 1015.8 |
| 20260831173657 | 93 | 7 | 0.0 | 3.0 | 0.00 | 0.00 | 0.00 | 59 | 1015.8 |
| 20260831173558 | 93 | 6 | 3.0 | 3.0 | 0.00 | 0.00 | 0.00 | 59 | 1015.8 |
| 20260831173456 | 93 | 7 | 0.0 | 2.0 | 0.00 | 0.00 | 0.00 | 59 | 1015.7 |
| 20260831173358 | 93 | 7 | 0.0 | 2.0 | 0.00 | 0.00 | 0.00 | 59 | 1015.8 |
| 20260831173257 | 93 | 7 | 0.0 | 2.0 | 0.00 | 0.00 | 0.00 | 59 | 1015.8 |
| 20260831173155 | 93 | 7 | 0.0 | 2.0 | 0.00 | 0.00 | 0.00 | 59 | 1015.8 |
| 20260831173055 | 94 | 7 | 0.0 | 2.0 | 0.00 | 0.00 | 0.00 | 58 | 1015.8 |
| 20260831172959 | 94 | 7 | 0.0 | 2.0 | 0.00 | 0.00 | 0.00 | 58 | 1015.9 |
| 20260831172857 | 94 | 7 | 0.0 | 2.0 | 0.00 | 0.00 | 0.00 | 58 | 1015.9 |
| 20260831172756 | 94 | 7 | 1.0 | 3.0 | 0.00 | 0.00 | 0.00 | 59 | 1015.9 |
| 20260831172655 | 94 | 7 | 0.0 | 3.0 | 0.00 | 0.00 | 0.00 | 59 | 1015.9 |
| 20260831172556 | 94 | 7 | 0.0 | 3.0 | 0.00 | 0.00 | 0.00 | 60 | 1015.9 |
| 20260831172356 | 94 | 7 | 0.0 | 3.0 | 0.00 | 0.00 | 0.00 | 59 | 1016.0 |
| 20260831172255 | 94 | 7 | 0.0 | 3.0 | 0.00 | 0.00 | 0.00 | 60 | 1016.0 |
| 20260831172156 | 93 | 7 | 0.0 | 3.0 | 0.00 | 0.00 | 0.00 | 59 | 1015.9 |
| 20260831172057 | 93 | 7 | 0.0 | 3.0 | 0.00 | 0.00 | 0.00 | 59 | 1016.0 |
| 20260831171958 | 93 | 6 | 2.0 | 2.0 | 0.00 | 0.00 | 0.00 | 59 | 1016.0 |
| 20260831171857 | 93 | 7 | 2.0 | 2.0 | 0.00 | 0.00 | 0.00 | 59 | 1016.0 |
| 20260831171757 | 93 | 7 | 0.0 | 2.0 | 0.00 | 0.00 | 0.00 | 58 | 1016.0 |
| 20260831171657 | 93 | 7 | 0.0 | 2.0 | 0.00 | 0.00 | 0.00 | 59 | 1016.0 |
| 20260831171556 | 93 | 7 | 0.0 | 2.0 | 0.00 | 0.00 | 0.00 | 59 | 1016.0 |
| 20260831171457 | 93 | 7 | 0.0 | 2.0 | 0.00 | 0.00 | 0.00 | 59 | 1016.0 |
| 20260831171358 | 93 | 7 | 0.0 | 2.0 | 0.00 | 0.00 | 0.00 | 59 | 1016.0 |
| 20260831171258 | 94 | 7 | 0.0 | 2.0 | 0.00 | 0.00 | 0.00 | 59 | 1016.0 |
| 20260831171156 | 94 | 7 | 0.0 | 2.0 | 0.00 | 0.00 | 0.00 | 59 | 1016.0 |
| 20260831170957 | 94 | 7 | 0.0 | 2.0 | 0.00 | 0.00 | 0.00 | 59 | 1016.0 |
| 20260831170758 | 94 | 7 | 0.0 | 4.0 | 0.00 | 0.00 | 0.00 | 59 | 1016.0 |
| 20260831170556 | 94 | 6 | 0.0 | 4.0 | 0.00 | 0.00 | 0.00 | 59 | 1016.1 |
| 20260831170455 | 94 | 6 | 1.0 | 4.0 | 0.00 | 0.00 | 0.00 | 59 | 1016.0 |
| 20260831170355 | 94 | 6 | 0.0 | 4.0 | 0.00 | 0.00 | 0.00 | 58 | 1016.0 |
| 20260831170255 | 94 | 6 | 0.0 | 4.0 | 0.00 | 0.00 | 0.00 | 58 | 1016.0 |
| 20260831165957 | 94 | 51 | 2.0 | 4.0 | 0.00 | 0.00 | 0.00 | 58 | 1016.0 |
| 20260831165857 | 95 | 54 | 1.0 | 4.0 | 0.00 | 0.00 | 0.00 | 58 | 1016.0 |
| 20260831165757 | 95 | 80 | 0.0 | 3.0 | 0.00 | 0.00 | 0.00 | 58 | 1016.0 |
| 20260831165657 | 95 | 80 | 0.0 | 3.0 | 0.00 | 0.00 | 0.00 | 58 | 1016.0 |
| 20260831165558 | 95 | 80 | 2.0 | 3.0 | 0.00 | 0.00 | 0.00 | 58 | 1016.0 |
| 20260831165356 | 95 | 85 | 1.0 | 3.0 | 0.00 | 0.00 | 0.00 | 58 | 1016.1 |
| 20260831165257 | 95 | 85 | 0.0 | 3.0 | 0.00 | 0.00 | 0.00 | 58 | 1016.1 |
| 20260831165158 | 95 | 85 | 0.0 | 3.0 | 0.00 | 0.00 | 0.00 | 58 | 1016.1 |
| 20260831165057 | 95 | 85 | 1.0 | 3.0 | 0.00 | 0.00 | 0.00 | 58 | 1016.1 |
| 20260831164957 | 95 | 85 | 0.0 | 3.0 | 0.00 | 0.00 | 0.00 | 59 | 1016.1 |
| 20260831164857 | 95 | 85 | 1.0 | 3.0 | 0.00 | 0.00 | 0.00 | 59 | 1016.1 |
| 20260831164654 | 94 | 84 | 1.0 | 3.0 | 0.00 | 0.00 | 0.00 | 59 | 1016.1 |
| 20260831164555 | 94 | 84 | 0.0 | 3.0 | 0.00 | 0.00 | 0.00 | 60 | 1016.1 |
| 20260831164456 | 94 | 84 | 0.0 | 3.0 | 0.00 | 0.00 | 0.00 | 60 | 1016.1 |
| 20260831164255 | 94 | 84 | 0.0 | 3.0 | 0.00 | 0.00 | 0.00 | 60 | 1016.1 |
| 20260831164156 | 94 | 85 | 3.0 | 3.0 | 0.00 | 0.00 | 0.00 | 60 | 1016.1 |
| 20260831164055 | 93 | 84 | 0.0 | 3.0 | 0.00 | 0.00 | 0.00 | 60 | 1016.2 |
| 20260831163959 | 93 | 85 | 1.0 | 3.0 | 0.00 | 0.00 | 0.00 | 60 | 1016.1 |
| 20260831163756 | 93 | 84 | 0.0 | 3.0 | 0.00 | 0.00 | 0.00 | 60 | 1016.1 |
| 20260831163555 | 93 | 84 | 0.0 | 3.0 | 0.00 | 0.00 | 0.00 | 59 | 1016.1 |
| 20260831163358 | 93 | 83 | 0.0 | 2.0 | 0.00 | 0.00 | 0.00 | 60 | 1016.1 |
| 20260831163257 | 93 | 83 | 0.0 | 2.0 | 0.00 | 0.00 | 0.00 | 60 | 1016.1 |
| 20260831163157 | 93 | 83 | 0.0 | 2.0 | 0.00 | 0.00 | 0.00 | 60 | 1016.1 |
| 20260831163057 | 93 | 83 | 0.0 | 2.0 | 0.00 | 0.00 | 0.00 | 60 | 1016.1 |
| 20260831162957 | 93 | 83 | 0.0 | 2.0 | 0.00 | 0.00 | 0.00 | 60 | 1016.1 |
| 20260831162855 | 93 | 83 | 0.0 | 3.0 | 0.00 | 0.00 | 0.00 | 59 | 1016.0 |
| 20260831162758 | 93 | 83 | 1.0 | 3.0 | 0.00 | 0.00 | 0.00 | 60 | 1016.0 |
| 20260831162657 | 93 | 83 | 0.0 | 3.0 | 0.00 | 0.00 | 0.00 | 60 | 1016.1 |
| 20260831162555 | 93 | 83 | 0.0 | 3.0 | 0.00 | 0.00 | 0.00 | 60 | 1016.0 |
| 20260831162458 | 93 | 83 | 0.0 | 3.0 | 0.00 | 0.00 | 0.00 | 60 | 1016.1 |
| 20260831162357 | 93 | 83 | 1.0 | 3.0 | 0.00 | 0.00 | 0.00 | 60 | 1016.0 |
| 20260831162257 | 93 | 83 | 1.0 | 3.0 | 0.00 | 0.00 | 0.00 | 60 | 1016.0 |
| 20260831162155 | 93 | 83 | 0.0 | 3.0 | 0.00 | 0.00 | 0.00 | 60 | 1016.1 |
| 20260831162055 | 93 | 83 | 2.0 | 3.0 | 0.00 | 0.00 | 0.00 | 61 | 1016.1 |
| 20260831161959 | 93 | 83 | 1.0 | 3.0 | 0.00 | 0.00 | 0.00 | 61 | 1016.0 |
| 20260831161855 | 93 | 83 | 1.0 | 3.0 | 0.00 | 0.00 | 0.00 | 61 | 1016.1 |
| 20260831161755 | 93 | 83 | 0.0 | 3.0 | 0.00 | 0.00 | 0.00 | 61 | 1016.1 |
| 20260831161655 | 92 | 83 | 0.0 | 3.0 | 0.00 | 0.00 | 0.00 | 61 | 1016.1 |
| 20260831161558 | 92 | 83 | 0.0 | 3.0 | 0.00 | 0.00 | 0.00 | 60 | 1016.1 |
| 20260831161355 | 92 | 83 | 1.0 | 3.0 | 0.00 | 0.00 | 0.00 | 61 | 1016.1 |
| 20260831161255 | 92 | 83 | 0.0 | 2.0 | 0.00 | 0.00 | 0.00 | 61 | 1016.1 |
| 20260831161157 | 92 | 83 | 1.0 | 2.0 | 0.00 | 0.00 | 0.00 | 61 | 1016.2 |
| 20260831161056 | 92 | 83 | 0.0 | 2.0 | 0.00 | 0.00 | 0.00 | 61 | 1016.1 |
| 20260831160959 | 92 | 83 | 0.0 | 2.0 | 0.00 | 0.00 | 0.00 | 61 | 1016.1 |
| 20260831160855 | 92 | 83 | 0.0 | 2.0 | 0.00 | 0.00 | 0.00 | 61 | 1016.2 |
| 20260831160757 | 92 | 83 | 0.0 | 2.0 | 0.00 | 0.00 | 0.00 | 61 | 1016.2 |
| 20260831160655 | 92 | 83 | 0.0 | 2.0 | 0.00 | 0.00 | 0.00 | 61 | 1016.1 |
| 20260831160555 | 92 | 83 | 0.0 | 2.0 | 0.00 | 0.00 | 0.00 | 61 | 1016.2 |
| 20260831160455 | 92 | 83 | 0.0 | 2.0 | 0.00 | 0.00 | 0.00 | 60 | 1016.3 |
| 20260831160257 | 92 | 83 | 2.0 | 3.0 | 0.00 | 0.00 | 0.00 | 61 | 1016.3 |
| 20260831160156 | 92 | 83 | 0.0 | 3.0 | 0.00 | 0.00 | 0.00 | 61 | 1016.2 |
| 20260831160057 | 91 | 83 | 0.0 | 3.0 | 0.00 | 0.00 | 0.00 | 61 | 1016.3 |
| 20260831155957 | 91 | 83 | 0.0 | 3.0 | 0.00 | 0.00 | 0.00 | 61 | 1016.2 |
| 20260831155858 | 91 | 83 | 0.0 | 3.0 | 0.00 | 0.00 | 0.00 | 61 | 1016.2 |
| 20260831155757 | 91 | 83 | 0.0 | 3.0 | 0.00 | 0.00 | 0.00 | 61 | 1016.2 |
| 20260831155655 | 91 | 83 | 0.0 | 3.0 | 0.00 | 0.00 | 0.00 | 61 | 1016.2 |
| 20260831155557 | 91 | 83 | 1.0 | 3.0 | 0.00 | 0.00 | 0.00 | 61 | 1016.2 |
| 20260831155458 | 91 | 83 | 0.0 | 3.0 | 0.00 | 0.00 | 0.00 | 61 | 1016.2 |
| 20260831155355 | 91 | 83 | 1.0 | 3.0 | 0.00 | 0.00 | 0.00 | 61 | 1016.2 |
| 20260831155158 | 91 | 81 | 1.0 | 2.0 | 0.00 | 0.00 | 0.00 | 61 | 1016.2 |
| 20260831155057 | 90 | 81 | 0.0 | 2.0 | 0.00 | 0.00 | 0.00 | 61 | 1016.2 |
| 20260831154957 | 90 | 81 | 0.0 | 2.0 | 0.00 | 0.00 | 0.00 | 61 | 1016.2 |
| 20260831154856 | 90 | 81 | 1.0 | 2.0 | 0.00 | 0.00 | 0.00 | 62 | 1016.2 |
| 20260831154755 | 90 | 81 | 0.0 | 3.0 | 0.00 | 0.00 | 0.00 | 61 | 1016.3 |
| 20260831154657 | 90 | 81 | 0.0 | 3.0 | 0.00 | 0.00 | 0.00 | 62 | 1016.3 |
| 20260831154557 | 90 | 81 | 0.0 | 3.0 | 0.00 | 0.00 | 0.00 | 61 | 1016.2 |
| 20260831154455 | 90 | 81 | 0.0 | 3.0 | 0.00 | 0.00 | 0.00 | 61 | 1016.3 |
| 20260831154256 | 90 | 81 | 0.0 | 3.0 | 0.00 | 0.00 | 0.00 | 61 | 1016.3 |
| 20260831154157 | 90 | 81 | 0.0 | 3.0 | 0.00 | 0.00 | 0.00 | 61 | 1016.3 |
| 20260831154057 | 90 | 81 | 0.0 | 3.0 | 0.00 | 0.00 | 0.00 | 61 | 1016.3 |
| 20260831153957 | 90 | 81 | 2.0 | 3.0 | 0.00 | 0.00 | 0.00 | 61 | 1016.3 |
| 20260831153855 | 90 | 81 | 2.0 | 3.0 | 0.00 | 0.00 | 0.00 | 61 | 1016.3 |
| 20260831153756 | 89 | 90 | 0.0 | 2.0 | 0.00 | 0.00 | 0.00 | 61 | 1016.3 |
| 20260831153555 | 89 | 90 | 0.0 | 2.0 | 0.00 | 0.00 | 0.00 | 61 | 1016.3 |
| 20260831153456 | 89 | 90 | 0.0 | 2.0 | 0.00 | 0.00 | 0.00 | 61 | 1016.3 |
| 20260831153357 | 89 | 90 | 0.0 | 2.0 | 0.00 | 0.00 | 0.00 | 61 | 1016.3 |
| 20260831153257 | 89 | 90 | 0.0 | 2.0 | 0.00 | 0.00 | 0.00 | 61 | 1016.3 |
| 20260831153157 | 89 | 90 | 0.0 | 2.0 | 0.00 | 0.00 | 0.00 | 61 | 1016.3 |
| 20260831152959 | 89 | 90 | 0.0 | 2.0 | 0.00 | 0.00 | 0.00 | 61 | 1016.3 |
| 20260831152857 | 89 | 90 | 0.0 | 2.0 | 0.00 | 0.00 | 0.00 | 61 | 1016.3 |
| 20260831152755 | 89 | 90 | 1.0 | 2.0 | 0.00 | 0.00 | 0.00 | 60 | 1016.3 |
| 20260831152656 | 89 | 90 | 0.0 | 2.0 | 0.00 | 0.00 | 0.00 | 60 | 1016.3 |
| 20260831152455 | 88 | 90 | 0.0 | 2.0 | 0.00 | 0.00 | 0.00 | 60 | 1016.3 |
| 20260831152357 | 88 | 90 | 0.0 | 2.0 | 0.00 | 0.00 | 0.00 | 60 | 1016.2 |
| 20260831152255 | 88 | 90 | 0.0 | 2.0 | 0.00 | 0.00 | 0.00 | 59 | 1016.2 |
| 20260831152055 | 88 | 90 | 0.0 | 2.0 | 0.00 | 0.00 | 0.00 | 58 | 1016.2 |
| 20260831151856 | 88 | 90 | 0.0 | 2.0 | 0.00 | 0.00 | 0.00 | 56 | 1016.2 |
| 20260831151757 | 87 | 90 | 0.0 | 2.0 | 0.00 | 0.00 | 0.00 | 56 | 1016.2 |
| 20260831151555 | 87 | 90 | 1.0 | 3.0 | 0.00 | 0.00 | 0.00 | 56 | 1016.3 |
| 20260831151456 | 87 | 90 | 0.0 | 3.0 | 0.00 | 0.00 | 0.00 | 56 | 1016.2 |
| 20260831151356 | 87 | 90 | 0.0 | 3.0 | 0.00 | 0.00 | 0.00 | 55 | 1016.3 |
| 20260831151257 | 87 | 90 | 0.0 | 3.0 | 0.00 | 0.00 | 0.00 | 55 | 1016.3 |
| 20260831151157 | 87 | 90 | 0.0 | 3.0 | 0.00 | 0.00 | 0.00 | 55 | 1016.2 |
| 20260831150958 | 87 | 90 | 2.0 | 3.0 | 0.00 | 0.00 | 0.00 | 54 | 1016.3 |
| 20260831150856 | 87 | 90 | 0.0 | 3.0 | 0.00 | 0.00 | 0.00 | 52 | 1016.3 |
| 20260831150757 | 87 | 90 | 1.0 | 3.0 | 0.00 | 0.00 | 0.00 | 51 | 1016.3 |
| 20260831150557 | 86 | 90 | 0.0 | 3.0 | 0.00 | 0.00 | 0.00 | 51 | 1016.3 |
| 20260831150457 | 86 | 90 | 0.0 | 3.0 | 0.00 | 0.00 | 0.00 | 50 | 1016.2 |
| 20260831150357 | 86 | 90 | 0.0 | 3.0 | 0.00 | 0.00 | 0.00 | 50 | 1016.2 |
| 20260831150257 | 86 | 90 | 0.0 | 3.0 | 0.00 | 0.00 | 0.00 | 49 | 1016.2 |
| 20260831150156 | 86 | 90 | 2.0 | 3.0 | 0.00 | 0.00 | 0.00 | 48 | 1016.2 |
| 20260831150057 | 86 | 90 | 0.0 | 3.0 | 0.00 | 0.00 | 0.00 | 48 | 1016.2 |
| 20260831145857 | 86 | 103 | 1.0 | 3.0 | 0.00 | 0.00 | 0.00 | 47 | 1016.2 |
| 20260831145757 | 86 | 103 | 3.0 | 3.0 | 0.00 | 0.00 | 0.00 | 46 | 1016.1 |
| 20260831145657 | 86 | 103 | 1.0 | 1.0 | 0.00 | 0.00 | 0.00 | 44 | 1016.1 |
| 20260831145558 | 86 | 103 | 0.0 | 1.0 | 0.00 | 0.00 | 0.00 | 43 | 1016.1 |
| 20260831145357 | 86 | 103 | 0.0 | 3.0 | 0.00 | 0.00 | 0.00 | 39 | 1016.0 |
| 20260831145258 | 86 | 103 | 1.0 | 3.0 | 0.00 | 0.00 | 0.00 | 39 | 1016.0 |
| 20260831145157 | 85 | 103 | 0.0 | 3.0 | 0.00 | 0.00 | 0.00 | 36 | 1016.0 |
| 20260831144958 | 85 | 103 | 0.0 | 3.0 | 0.00 | 0.00 | 0.00 | 38 | 1016.0 |
| 20260831144758 | 85 | 103 | 0.0 | 3.0 | 0.00 | 0.00 | 0.00 | 37 | 1016.0 |
| 20260831144656 | 85 | 103 | 0.0 | 3.0 | 0.00 | 0.00 | 0.00 | 36 | 1016.1 |
| 20260831144555 | 85 | 103 | 2.0 | 3.0 | 0.00 | 0.00 | 0.00 | 33 | 1016.1 |
| 20260831144457 | 84 | 103 | 0.0 | 2.0 | 0.00 | 0.00 | 0.00 | 31 | 1016.1 |
| 20260831144357 | 84 | 103 | 0.0 | 2.0 | 0.00 | 0.00 | 0.00 | 32 | 1016.1 |
| 20260831144257 | 84 | 103 | 0.0 | 2.0 | 0.00 | 0.00 | 0.00 | 31 | 1016.1 |
| 20260831143957 | 84 | 103 | 1.0 | 1.0 | 0.00 | 0.00 | 0.00 | 26 | 1016.0 |
| 20260831143757 | 84 | 103 | 0.0 | 1.0 | 0.00 | 0.00 | 0.00 | 24 | 1016.0 |
| 20260831143657 | 84 | 103 | 0.0 | 1.0 | 0.00 | 0.00 | 0.00 | 20 | 1016.0 |
| 20260831143557 | 83 | 103 | 0.0 | 1.0 | 0.00 | 0.00 | 0.00 | 19 | 1016.0 |
| 20260831143457 | 83 | 103 | 0.0 | 1.0 | 0.00 | 0.00 | 0.00 | 18 | 1016.0 |
| 20260831143357 | 83 | 103 | 0.0 | 1.0 | 0.00 | 0.00 | 0.00 | 19 | 1016.0 |
| 20260831143257 | 83 | 103 | 0.0 | 1.0 | 0.00 | 0.00 | 0.00 | 16 | 1016.1 |
| 20260831143157 | 83 | 103 | 0.0 | 1.0 | 0.00 | 0.00 | 0.00 | 14 | 1016.1 |
| 20260831143055 | 83 | 103 | 0.0 | 1.0 | 0.00 | 0.00 | 0.00 | 11 | 1016.1 |
| 20260831142958 | 82 | 103 | 0.0 | 1.0 | 0.00 | 0.00 | 0.00 | 9 | 1016.1 |
| 20260831142856 | 82 | 103 | 0.0 | 1.0 | 0.00 | 0.00 | 0.00 | 9 | 1016.1 |
| 20260831142756 | 82 | 103 | 0.0 | 1.0 | 0.00 | 0.00 | 0.00 | 3 | 1016.1 |
| 20260831142657 | 82 | 103 | 0.0 | 1.0 | 0.00 | 0.00 | 0.00 | 100 | 1016.1 |
| 20260831142557 | 82 | 103 | 0.0 | 2.0 | 0.00 | 0.00 | 0.00 | 100 | 1016.2 |
| 20260831142457 | 82 | 103 | 0.0 | 3.0 | 0.00 | 0.00 | 0.00 | 100 | 1016.1 |
| 20260831142357 | 81 | 103 | 0.0 | 3.0 | 0.00 | 0.00 | 0.00 | 100 | 1016.1 |
| 20260831142157 | 81 | 103 | 1.0 | 3.0 | 0.00 | 0.00 | 0.00 | 100 | 1016.1 |
| 20260831142055 | 81 | 103 | 0.0 | 3.0 | 0.00 | 0.00 | 0.00 | 100 | 1016.1 |
| 20260831141958 | 81 | 103 | 0.0 | 3.0 | 0.00 | 0.00 | 0.00 | 100 | 1016.1 |
| 20260831141757 | 81 | 103 | 0.0 | 3.0 | 0.00 | 0.00 | 0.00 | 100 | 1016.1 |
| 20260831141657 | 80 | 103 | 1.0 | 3.0 | 0.00 | 0.00 | 0.00 | 100 | 1016.1 |
| 20260831141555 | 80 | 103 | 2.0 | 2.0 | 0.00 | 0.00 | 0.00 | 100 | 1016.1 |
| 20260831141457 | 80 | 103 | 2.0 | 2.0 | 0.00 | 0.00 | 0.00 | 100 | 1016.1 |
| 20260831141355 | 80 | 103 | 0.0 | 2.0 | 0.00 | 0.00 | 0.00 | 100 | 1016.1 |
| 20260831141158 | 80 | 103 | 0.0 | 2.0 | 0.00 | 0.00 | 0.00 | 100 | 1016.1 |
| 20260831141057 | 80 | 103 | 0.0 | 2.0 | 0.00 | 0.00 | 0.00 | 100 | 1016.1 |
| 20260831140857 | 79 | 103 | 0.0 | 2.0 | 0.00 | 0.00 | 0.00 | 100 | 1016.1 |
| 20260831140657 | 79 | 103 | 1.0 | 1.0 | 0.00 | 0.00 | 0.00 | 100 | 1016.0 |
| 20260831140557 | 79 | 103 | 0.0 | 1.0 | 0.00 | 0.00 | 0.00 | 100 | 1016.0 |
| 20260831140457 | 79 | 103 | 0.0 | 1.0 | 0.00 | 0.00 | 0.00 | 100 | 1016.0 |
| 20260831140357 | 79 | 103 | 0.0 | 1.0 | 0.00 | 0.00 | 0.00 | 100 | 1016.0 |
| 20260831140255 | 78 | 103 | 0.0 | 1.0 | 0.00 | 0.00 | 0.00 | 100 | 1016.0 |
| 20260831140157 | 78 | 103 | 0.0 | 2.0 | 0.00 | 0.00 | 0.00 | 100 | 1015.9 |
| 20260831140057 | 78 | 103 | 0.0 | 2.0 | 0.00 | 0.00 | 0.00 | 100 | 1015.9 |
| 20260831135959 | 78 | 103 | 0.0 | 2.0 | 0.00 | 0.00 | 0.00 | 100 | 1015.9 |
| 20260831135855 | 78 | 103 | 0.0 | 2.0 | 0.00 | 0.00 | 0.00 | 100 | 1015.9 |
| 20260831135757 | 78 | 103 | 0.0 | 2.0 | 0.00 | 0.00 | 0.00 | 100 | 1015.9 |
| 20260831135657 | 78 | 103 | 0.0 | 2.0 | 0.00 | 0.00 | 0.00 | 100 | 1015.9 |
| 20260831135557 | 78 | 103 | 0.0 | 2.0 | 0.00 | 0.00 | 0.00 | 100 | 1015.9 |
| 20260831135457 | 78 | 103 | 0.0 | 2.0 | 0.00 | 0.00 | 0.00 | 100 | 1015.9 |
| 20260831135257 | 78 | 103 | 2.0 | 2.0 | 0.00 | 0.00 | 0.00 | 100 | 1015.9 |
| 20260831135157 | 77 | 103 | 0.0 | 0.0 | 0.00 | 0.00 | 0.00 | 100 | 1015.9 |
| 20260831135056 | 77 | 103 | 0.0 | 0.0 | 0.00 | 0.00 | 0.00 | 100 | 1015.9 |
| 20260831134959 | 77 | 103 | 0.0 | 0.0 | 0.00 | 0.00 | 0.00 | 100 | 1015.9 |
| 20260831134857 | 77 | 103 | 0.0 | 0.0 | 0.00 | 0.00 | 0.00 | 100 | 1015.9 |
| 20260831134758 | 77 | 103 | 0.0 | 1.0 | 0.00 | 0.00 | 0.00 | 100 | 1015.9 |
| 20260831134655 | 77 | 103 | 0.0 | 1.0 | 0.00 | 0.00 | 0.00 | 100 | 1015.9 |
| 20260831134555 | 77 | 103 | 0.0 | 1.0 | 0.00 | 0.00 | 0.00 | 100 | 1015.9 |
| 20260831134457 | 77 | 103 | 0.0 | 1.0 | 0.00 | 0.00 | 0.00 | 100 | 1015.9 |
| 20260831134355 | 77 | 103 | 0.0 | 1.0 | 0.00 | 0.00 | 0.00 | 100 | 1015.8 |
| 20260831134257 | 77 | 103 | 0.0 | 1.0 | 0.00 | 0.00 | 0.00 | 100 | 1015.8 |
| 20260831134156 | 77 | 103 | 0.0 | 1.0 | 0.00 | 0.00 | 0.00 | 100 | 1015.8 |
| 20260831134055 | 77 | 103 | 0.0 | 1.0 | 0.00 | 0.00 | 0.00 | 100 | 1015.8 |
| 20260831133958 | 77 | 103 | 0.0 | 1.0 | 0.00 | 0.00 | 0.00 | 100 | 1015.9 |
| 20260831133655 | 76 | 103 | 0.0 | 0.0 | 0.00 | 0.00 | 0.00 | 100 | 1015.9 |
| 20260831133558 | 76 | 103 | 0.0 | 1.0 | 0.00 | 0.00 | 0.00 | 100 | 1015.9 |
| 20260831133457 | 76 | 103 | 0.0 | 1.0 | 0.00 | 0.00 | 0.00 | 100 | 1015.9 |
| 20260831133356 | 76 | 103 | 0.0 | 1.0 | 0.00 | 0.00 | 0.00 | 100 | 1015.8 |
| 20260831133255 | 76 | 103 | 0.0 | 1.0 | 0.00 | 0.00 | 0.00 | 100 | 1015.8 |
| 20260831133157 | 76 | 103 | 0.0 | 1.0 | 0.00 | 0.00 | 0.00 | 100 | 1015.9 |
| 20260831133057 | 76 | 103 | 0.0 | 1.0 | 0.00 | 0.00 | 0.00 | 100 | 1015.8 |
| 20260831132957 | 76 | 103 | 0.0 | 1.0 | 0.00 | 0.00 | 0.00 | 100 | 1015.9 |
| 20260831132758 | 76 | 103 | 0.0 | 1.0 | 0.00 | 0.00 | 0.00 | 100 | 1015.8 |
| 20260831132657 | 76 | 103 | 1.0 | 1.0 | 0.00 | 0.00 | 0.00 | 100 | 1015.8 |
| 20260831132555 | 76 | 103 | 0.0 | 0.0 | 0.00 | 0.00 | 0.00 | 100 | 1015.9 |
| 20260831132455 | 75 | 103 | 0.0 | 0.0 | 0.00 | 0.00 | 0.00 | 100 | 1015.8 |
| 20260831132357 | 75 | 103 | 0.0 | 0.0 | 0.00 | 0.00 | 0.00 | 100 | 1015.8 |
| 20260831132155 | 75 | 103 | 0.0 | 0.0 | 0.00 | 0.00 | 0.00 | 100 | 1015.7 |
| 20260831132055 | 75 | 103 | 0.0 | 0.0 | 0.00 | 0.00 | 0.00 | 100 | 1015.7 |
| 20260831131956 | 75 | 103 | 0.0 | 0.0 | 0.00 | 0.00 | 0.00 | 100 | 1015.7 |
| 20260831131857 | 75 | 103 | 0.0 | 0.0 | 0.00 | 0.00 | 0.00 | 100 | 1015.7 |
| 20260831131758 | 75 | 103 | 0.0 | 0.0 | 0.00 | 0.00 | 0.00 | 100 | 1015.7 |
| 20260831131557 | 75 | 103 | 0.0 | 0.0 | 0.00 | 0.00 | 0.00 | 100 | 1015.6 |
| 20260831131457 | 75 | 103 | 0.0 | 0.0 | 0.00 | 0.00 | 0.00 | 100 | 1015.6 |
| 20260831131357 | 75 | 103 | 0.0 | 0.0 | 0.00 | 0.00 | 0.00 | 100 | 1015.6 |
| 20260831131255 | 75 | 103 | 0.0 | 0.0 | 0.00 | 0.00 | 0.00 | 100 | 1015.6 |
| 20260831131057 | 75 | 103 | 0.0 | 0.0 | 0.00 | 0.00 | 0.00 | 100 | 1015.5 |
| 20260831130755 | 74 | 103 | 0.0 | 0.0 | 0.00 | 0.00 | 0.00 | 100 | 1015.5 |
| 20260831130658 | 74 | 103 | 0.0 | 0.0 | 0.00 | 0.00 | 0.00 | 100 | 1015.5 |
| 20260831130557 | 74 | 103 | 0.0 | 0.0 | 0.00 | 0.00 | 0.00 | 100 | 1015.4 |
| 20260831130455 | 74 | 103 | 0.0 | 0.0 | 0.00 | 0.00 | 0.00 | 100 | 1015.4 |
| 20260831130357 | 74 | 103 | 0.0 | 0.0 | 0.00 | 0.00 | 0.00 | 100 | 1015.4 |
| 20260831130257 | 74 | 103 | 0.0 | 0.0 | 0.00 | 0.00 | 0.00 | 100 | 1015.4 |
| 20260831130057 | 74 | 103 | 0.0 | 0.0 | 0.00 | 0.00 | 0.00 | 100 | 1015.4 |
| 20260831125956 | 74 | 103 | 0.0 | 0.0 | 0.00 | 0.00 | 0.00 | 100 | 1015.4 |
| 20260831125857 | 74 | 103 | 0.0 | 0.0 | 0.00 | 0.00 | 0.00 | 100 | 1015.5 |
| 20260831125757 | 74 | 103 | 0.0 | 0.0 | 0.00 | 0.00 | 0.00 | 100 | 1015.5 |
| 20260831125655 | 74 | 103 | 0.0 | 0.0 | 0.00 | 0.00 | 0.00 | 100 | 1015.5 |
| 20260831125556 | 74 | 103 | 0.0 | 0.0 | 0.00 | 0.00 | 0.00 | 100 | 1015.4 |
| 20260831125457 | 74 | 103 | 0.0 | 0.0 | 0.00 | 0.00 | 0.00 | 100 | 1015.4 |
| 20260831125255 | 74 | 103 | 0.0 | 0.0 | 0.00 | 0.00 | 0.00 | 100 | 1015.3 |
| 20260831125157 | 74 | 103 | 0.0 | 0.0 | 0.00 | 0.00 | 0.00 | 100 | 1015.3 |
| 20260831125057 | 74 | 103 | 0.0 | 0.0 | 0.00 | 0.00 | 0.00 | 100 | 1015.3 |
| 20260831124958 | 74 | 103 | 0.0 | 0.0 | 0.00 | 0.00 | 0.00 | 100 | 1015.3 |
| 20260831124855 | 74 | 103 | 0.0 | 0.0 | 0.00 | 0.00 | 0.00 | 100 | 1015.2 |
| 20260831124756 | 74 | 103 | 0.0 | 0.0 | 0.00 | 0.00 | 0.00 | 100 | 1015.2 |
| 20260831124657 | 74 | 103 | 0.0 | 0.0 | 0.00 | 0.00 | 0.00 | 100 | 1015.3 |
| 20260831124455 | 74 | 103 | 0.0 | 0.0 | 0.00 | 0.00 | 0.00 | 100 | 1015.2 |
| 20260831124355 | 74 | 103 | 0.0 | 0.0 | 0.00 | 0.00 | 0.00 | 100 | 1015.2 |
| 20260831124157 | 74 | 103 | 0.0 | 0.0 | 0.00 | 0.00 | 0.00 | 100 | 1015.1 |
| 20260831124055 | 74 | 103 | 0.0 | 0.0 | 0.00 | 0.00 | 0.00 | 100 | 1015.1 |
| 20260831123957 | 74 | 103 | 0.0 | 0.0 | 0.00 | 0.00 | 0.00 | 100 | 1015.1 |
| 20260831123757 | 74 | 103 | 0.0 | 0.0 | 0.00 | 0.00 | 0.00 | 100 | 1015.2 |
| 20260831123655 | 74 | 103 | 0.0 | 0.0 | 0.00 | 0.00 | 0.00 | 100 | 1015.1 |
| 20260831123556 | 74 | 103 | 0.0 | 0.0 | 0.00 | 0.00 | 0.00 | 100 | 1015.2 |
| 20260831123456 | 74 | 103 | 0.0 | 0.0 | 0.00 | 0.00 | 0.00 | 100 | 1015.2 |
| 20260831123357 | 74 | 103 | 0.0 | 0.0 | 0.00 | 0.00 | 0.00 | 100 | 1015.2 |
| 20260831123257 | 74 | 103 | 0.0 | 0.0 | 0.00 | 0.00 | 0.00 | 100 | 1015.1 |
| 20260831123155 | 74 | 103 | 0.0 | 0.0 | 0.00 | 0.00 | 0.00 | 100 | 1015.2 |
| 20260831123055 | 74 | 103 | 0.0 | 0.0 | 0.00 | 0.00 | 0.00 | 100 | 1015.1 |
| 20260831122856 | 74 | 103 | 0.0 | 0.0 | 0.00 | 0.00 | 0.00 | 100 | 1015.0 |
| 20260831122657 | 74 | 103 | 0.0 | 0.0 | 0.00 | 0.00 | 0.00 | 100 | 1014.9 |
| 20260831122557 | 74 | 103 | 0.0 | 0.0 | 0.00 | 0.00 | 0.00 | 100 | 1014.9 |
| 20260831122457 | 74 | 103 | 0.0 | 0.0 | 0.00 | 0.00 | 0.00 | 100 | 1015.0 |
| 20260831122255 | 74 | 103 | 0.0 | 0.0 | 0.00 | 0.00 | 0.00 | 100 | 1014.9 |
| 20260831121957 | 74 | 103 | 0.0 | 0.0 | 0.00 | 0.00 | 0.00 | 100 | 1014.8 |
| 20260831121855 | 74 | 103 | 0.0 | 0.0 | 0.00 | 0.00 | 0.00 | 100 | 1014.7 |
| 20260831121757 | 74 | 103 | 0.0 | 0.0 | 0.00 | 0.00 | 0.00 | 100 | 1014.7 |
| 20260831121657 | 74 | 103 | 0.0 | 0.0 | 0.00 | 0.00 | 0.00 | 100 | 1014.7 |
| 20260831121555 | 74 | 103 | 0.0 | 0.0 | 0.00 | 0.00 | 0.00 | 100 | 1014.7 |
| 20260831121455 | 74 | 103 | 0.0 | 0.0 | 0.00 | 0.00 | 0.00 | 100 | 1014.7 |
| 20260831121357 | 74 | 103 | 0.0 | 0.0 | 0.00 | 0.00 | 0.00 | 100 | 1014.7 |
| 20260831121257 | 74 | 103 | 0.0 | 0.0 | 0.00 | 0.00 | 0.00 | 100 | 1014.6 |
| 20260831121155 | 74 | 103 | 0.0 | 0.0 | 0.00 | 0.00 | 0.00 | 100 | 1014.6 |
| 20260831121055 | 74 | 103 | 0.0 | 0.0 | 0.00 | 0.00 | 0.00 | 100 | 1014.6 |
| 20260831120958 | 74 | 103 | 0.0 | 0.0 | 0.00 | 0.00 | 0.00 | 100 | 1014.7 |
| 20260831120756 | 74 | 103 | 0.0 | 0.0 | 0.00 | 0.00 | 0.00 | 100 | 1014.6 |
| 20260831120557 | 74 | 103 | 0.0 | 0.0 | 0.00 | 0.00 | 0.00 | 100 | 1014.6 |
| 20260831120457 | 74 | 103 | 0.0 | 0.0 | 0.00 | 0.00 | 0.00 | 100 | 1014.5 |
| 20260831120357 | 74 | 103 | 0.0 | 0.0 | 0.00 | 0.00 | 0.00 | 100 | 1014.5 |
| 20260831120255 | 74 | 103 | 0.0 | 0.0 | 0.00 | 0.00 | 0.00 | 100 | 1014.5 |
| 20260831120057 | 74 | 103 | 0.0 | 0.0 | 0.00 | 0.00 | 0.00 | 100 | 1014.5 |
| 20260831120008 | 74 | 103 | 0.0 | 0.0 | 0.00 | 0.00 | 0.00 | 100 | 1014.5 |
| 20260831115756 | 74 | 103 | 0.0 | 0.0 | 0.00 | 0.00 | 0.00 | 100 | 1014.5 |
| 20260831115659 | 74 | 103 | 0.0 | 0.0 | 0.00 | 0.00 | 0.00 | 100 | 1014.5 |
| 20260831115602 | 74 | 103 | 0.0 | 0.0 | 0.00 | 0.00 | 0.00 | 100 | 1014.4 |
| 20260831115456 | 74 | 103 | 0.0 | 0.0 | 0.00 | 0.00 | 0.00 | 100 | 1014.4 |
| 20260831115356 | 74 | 103 | 0.0 | 0.0 | 0.00 | 0.00 | 0.00 | 100 | 1014.4 |
| 20260831115255 | 74 | 103 | 0.0 | 0.0 | 0.00 | 0.00 | 0.00 | 100 | 1014.3 |
| 20260831115200 | 74 | 103 | 0.0 | 0.0 | 0.00 | 0.00 | 0.00 | 100 | 1014.3 |
| 20260831115059 | 74 | 103 | 0.0 | 0.0 | 0.00 | 0.00 | 0.00 | 100 | 1014.4 |
| 20260831114656 | 74 | 103 | 0.0 | 0.0 | 0.00 | 0.00 | 0.00 | 100 | 1014.4 |
| 20260831114556 | 74 | 103 | 0.0 | 0.0 | 0.00 | 0.00 | 0.00 | 100 | 1014.4 |
| 20260831114456 | 74 | 103 | 0.0 | 0.0 | 0.00 | 0.00 | 0.00 | 100 | 1014.4 |
| 20260831114259 | 74 | 103 | 0.0 | 0.0 | 0.00 | 0.00 | 0.00 | 100 | 1014.5 |
| 20260831114156 | 74 | 103 | 0.0 | 0.0 | 0.00 | 0.00 | 0.00 | 100 | 1014.5 |
| 20260831114057 | 74 | 103 | 0.0 | 0.0 | 0.00 | 0.00 | 0.00 | 100 | 1014.5 |
| 20260831113959 | 74 | 103 | 0.0 | 0.0 | 0.00 | 0.00 | 0.00 | 100 | 1014.5 |
| 20260831113858 | 74 | 103 | 0.0 | 0.0 | 0.00 | 0.00 | 0.00 | 100 | 1014.6 |
| 20260831113656 | 74 | 103 | 0.0 | 0.0 | 0.00 | 0.00 | 0.00 | 100 | 1014.5 |
| 20260831113559 | 74 | 103 | 0.0 | 0.0 | 0.00 | 0.00 | 0.00 | 100 | 1014.5 |
| 20260831113356 | 74 | 103 | 0.0 | 0.0 | 0.00 | 0.00 | 0.00 | 100 | 1014.4 |
| 20260831113256 | 74 | 103 | 0.0 | 0.0 | 0.00 | 0.00 | 0.00 | 100 | 1014.4 |
| 20260831113156 | 74 | 103 | 0.0 | 0.0 | 0.00 | 0.00 | 0.00 | 100 | 1014.4 |
| 20260831112958 | 74 | 103 | 0.0 | 0.0 | 0.00 | 0.00 | 0.00 | 100 | 1014.4 |
| 20260831112856 | 74 | 103 | 0.0 | 0.0 | 0.00 | 0.00 | 0.00 | 100 | 1014.4 |
| 20260831112802 | 74 | 103 | 0.0 | 0.0 | 0.00 | 0.00 | 0.00 | 100 | 1014.4 |
| 20260831112658 | 74 | 103 | 0.0 | 0.0 | 0.00 | 0.00 | 0.00 | 100 | 1014.4 |
| 20260831112556 | 74 | 103 | 0.0 | 0.0 | 0.00 | 0.00 | 0.00 | 100 | 1014.4 |
| 20260831112457 | 74 | 103 | 0.0 | 0.0 | 0.00 | 0.00 | 0.00 | 100 | 1014.5 |
| 20260831112358 | 74 | 103 | 0.0 | 0.0 | 0.00 | 0.00 | 0.00 | 100 | 1014.5 |
| 20260831112259 | 74 | 103 | 0.0 | 0.0 | 0.00 | 0.00 | 0.00 | 100 | 1014.4 |
| 20260831112056 | 74 | 103 | 0.0 | 0.0 | 0.00 | 0.00 | 0.00 | 100 | 1014.4 |
| 20260831111959 | 74 | 103 | 0.0 | 0.0 | 0.00 | 0.00 | 0.00 | 100 | 1014.4 |
| 20260831111859 | 74 | 103 | 0.0 | 0.0 | 0.00 | 0.00 | 0.00 | 100 | 1014.4 |
| 20260831111756 | 74 | 103 | 0.0 | 0.0 | 0.00 | 0.00 | 0.00 | 100 | 1014.4 |
| 20260831111656 | 74 | 103 | 0.0 | 0.0 | 0.00 | 0.00 | 0.00 | 100 | 1014.5 |
| 20260831111459 | 75 | 103 | 0.0 | 0.0 | 0.00 | 0.00 | 0.00 | 100 | 1014.4 |
| 20260831111256 | 75 | 103 | 0.0 | 0.0 | 0.00 | 0.00 | 0.00 | 100 | 1014.4 |
| 20260831111157 | 75 | 103 | 0.0 | 0.0 | 0.00 | 0.00 | 0.00 | 100 | 1014.4 |
| 20260831111059 | 75 | 103 | 0.0 | 0.0 | 0.00 | 0.00 | 0.00 | 100 | 1014.4 |
| 20260831110958 | 75 | 103 | 0.0 | 0.0 | 0.00 | 0.00 | 0.00 | 100 | 1014.4 |
| 20260831110856 | 75 | 103 | 0.0 | 0.0 | 0.00 | 0.00 | 0.00 | 100 | 1014.4 |
| 20260831110756 | 75 | 103 | 0.0 | 0.0 | 0.00 | 0.00 | 0.00 | 100 | 1014.5 |
| 20260831110659 | 75 | 103 | 0.0 | 0.0 | 0.00 | 0.00 | 0.00 | 100 | 1014.5 |
| 20260831110556 | 75 | 103 | 0.0 | 0.0 | 0.00 | 0.00 | 0.00 | 100 | 1014.5 |
| 20260831110456 | 75 | 103 | 0.0 | 0.0 | 0.00 | 0.00 | 0.00 | 100 | 1014.5 |
| 20260831110200 | 75 | 103 | 0.0 | 0.0 | 0.00 | 0.00 | 0.00 | 100 | 1014.5 |
| 20260831110056 | 75 | 103 | 0.0 | 0.0 | 0.00 | 0.00 | 0.00 | 100 | 1014.5 |
| 20260831110001 | 75 | 103 | 0.0 | 0.0 | 0.00 | 0.00 | 0.00 | 100 | 1014.5 |
| 20260831105859 | 75 | 103 | 0.0 | 0.0 | 0.00 | 0.00 | 0.00 | 100 | 1014.5 |
| 20260831105800 | 75 | 103 | 0.0 | 0.0 | 0.00 | 0.00 | 0.00 | 100 | 1014.5 |
| 20260831105656 | 75 | 103 | 0.0 | 0.0 | 0.00 | 0.00 | 0.00 | 100 | 1014.5 |
| 20260831105556 | 75 | 103 | 0.0 | 0.0 | 0.00 | 0.00 | 0.00 | 100 | 1014.5 |
| 20260831105459 | 75 | 103 | 0.0 | 0.0 | 0.00 | 0.00 | 0.00 | 100 | 1014.5 |
| 20260831105358 | 75 | 103 | 0.0 | 0.0 | 0.00 | 0.00 | 0.00 | 100 | 1014.5 |
| 20260831105057 | 75 | 103 | 0.0 | 0.0 | 0.00 | 0.00 | 0.00 | 100 | 1014.4 |
| 20260831104855 | 75 | 103 | 0.0 | 0.0 | 0.00 | 0.00 | 0.00 | 100 | 1014.4 |
| 20260831104756 | 75 | 103 | 0.0 | 0.0 | 0.00 | 0.00 | 0.00 | 100 | 1014.4 |
| 20260831104656 | 75 | 103 | 0.0 | 0.0 | 0.00 | 0.00 | 0.00 | 100 | 1014.4 |
| 20260831104559 | 75 | 103 | 0.0 | 0.0 | 0.00 | 0.00 | 0.00 | 100 | 1014.4 |
| 20260831104458 | 75 | 103 | 0.0 | 0.0 | 0.00 | 0.00 | 0.00 | 100 | 1014.4 |
| 20260831104357 | 75 | 103 | 0.0 | 0.0 | 0.00 | 0.00 | 0.00 | 100 | 1014.4 |
| 20260831104256 | 75 | 103 | 0.0 | 0.0 | 0.00 | 0.00 | 0.00 | 100 | 1014.5 |
| 20260831104156 | 75 | 103 | 0.0 | 0.0 | 0.00 | 0.00 | 0.00 | 100 | 1014.5 |
| 20260831104056 | 75 | 103 | 0.0 | 0.0 | 0.00 | 0.00 | 0.00 | 100 | 1014.5 |
| 20260831104001 | 75 | 103 | 0.0 | 0.0 | 0.00 | 0.00 | 0.00 | 100 | 1014.5 |
| 20260831103856 | 75 | 103 | 0.0 | 0.0 | 0.00 | 0.00 | 0.00 | 100 | 1014.4 |
| 20260831103758 | 75 | 103 | 0.0 | 0.0 | 0.00 | 0.00 | 0.00 | 100 | 1014.4 |
| 20260831103656 | 75 | 103 | 0.0 | 0.0 | 0.00 | 0.00 | 0.00 | 100 | 1014.4 |
| 20260831103456 | 75 | 103 | 0.0 | 0.0 | 0.00 | 0.00 | 0.00 | 100 | 1014.4 |
| 20260831103358 | 75 | 103 | 0.0 | 0.0 | 0.00 | 0.00 | 0.00 | 100 | 1014.4 |
| 20260831103255 | 75 | 103 | 0.0 | 0.0 | 0.00 | 0.00 | 0.00 | 100 | 1014.4 |
| 20260831103200 | 75 | 103 | 0.0 | 0.0 | 0.00 | 0.00 | 0.00 | 100 | 1014.4 |
| 20260831103000 | 75 | 103 | 0.0 | 0.0 | 0.00 | 0.00 | 0.00 | 100 | 1014.3 |
| 20260831102859 | 75 | 103 | 0.0 | 0.0 | 0.00 | 0.00 | 0.00 | 100 | 1014.4 |
| 20260831102756 | 75 | 103 | 0.0 | 0.0 | 0.00 | 0.00 | 0.00 | 100 | 1014.4 |
| 20260831102656 | 75 | 103 | 0.0 | 0.0 | 0.00 | 0.00 | 0.00 | 100 | 1014.4 |
| 20260831102557 | 75 | 103 | 0.0 | 0.0 | 0.00 | 0.00 | 0.00 | 100 | 1014.4 |
| 20260831102457 | 75 | 103 | 0.0 | 0.0 | 0.00 | 0.00 | 0.00 | 100 | 1014.4 |
| 20260831102357 | 75 | 103 | 0.0 | 0.0 | 0.00 | 0.00 | 0.00 | 100 | 1014.5 |
| 20260831102257 | 75 | 103 | 0.0 | 0.0 | 0.00 | 0.00 | 0.00 | 100 | 1014.5 |
| 20260831102159 | 75 | 103 | 0.0 | 0.0 | 0.00 | 0.00 | 0.00 | 100 | 1014.5 |
| 20260831102056 | 75 | 103 | 0.0 | 0.0 | 0.00 | 0.00 | 0.00 | 100 | 1014.5 |
| 20260831101856 | 75 | 103 | 0.0 | 0.0 | 0.00 | 0.00 | 0.00 | 100 | 1014.5 |
| 20260831101756 | 75 | 103 | 0.0 | 0.0 | 0.00 | 0.00 | 0.00 | 100 | 1014.5 |
| 20260831101656 | 75 | 103 | 0.0 | 0.0 | 0.00 | 0.00 | 0.00 | 100 | 1014.5 |
| 20260831101559 | 75 | 103 | 0.0 | 0.0 | 0.00 | 0.00 | 0.00 | 100 | 1014.5 |
| 20260831101456 | 75 | 103 | 0.0 | 0.0 | 0.00 | 0.00 | 0.00 | 100 | 1014.5 |
| 20260831101357 | 75 | 103 | 0.0 | 0.0 | 0.00 | 0.00 | 0.00 | 100 | 1014.5 |
| 20260831101256 | 75 | 103 | 0.0 | 0.0 | 0.00 | 0.00 | 0.00 | 100 | 1014.4 |
| 20260831101157 | 75 | 103 | 0.0 | 0.0 | 0.00 | 0.00 | 0.00 | 100 | 1014.4 |
| 20260831101057 | 75 | 103 | 0.0 | 0.0 | 0.00 | 0.00 | 0.00 | 100 | 1014.4 |
| 20260831100959 | 75 | 103 | 0.0 | 0.0 | 0.00 | 0.00 | 0.00 | 100 | 1014.4 |
| 20260831100857 | 75 | 103 | 0.0 | 0.0 | 0.00 | 0.00 | 0.00 | 100 | 1014.4 |
| 20260831100757 | 75 | 103 | 0.0 | 0.0 | 0.00 | 0.00 | 0.00 | 100 | 1014.5 |
| 20260831100656 | 75 | 103 | 0.0 | 0.0 | 0.00 | 0.00 | 0.00 | 100 | 1014.4 |
| 20260831100557 | 75 | 103 | 0.0 | 0.0 | 0.00 | 0.00 | 0.00 | 100 | 1014.5 |
| 20260831100456 | 75 | 103 | 0.0 | 0.0 | 0.00 | 0.00 | 0.00 | 100 | 1014.4 |
| 20260831100357 | 75 | 103 | 0.0 | 0.0 | 0.00 | 0.00 | 0.00 | 100 | 1014.4 |
| 20260831100256 | 75 | 103 | 0.0 | 0.0 | 0.00 | 0.00 | 0.00 | 100 | 1014.5 |
| 20260831100001 | 75 | 103 | 0.0 | 0.0 | 0.00 | 0.00 | 0.00 | 100 | 1014.5 |
| 20260831095856 | 75 | 103 | 0.0 | 0.0 | 0.00 | 0.00 | 0.00 | 100 | 1014.5 |
| 20260831095656 | 75 | 103 | 0.0 | 0.0 | 0.00 | 0.00 | 0.00 | 100 | 1014.5 |
| 20260831095357 | 75 | 103 | 0.0 | 0.0 | 0.00 | 0.00 | 0.00 | 100 | 1014.4 |
| 20260831095256 | 75 | 103 | 0.0 | 0.0 | 0.00 | 0.00 | 0.00 | 100 | 1014.4 |
| 20260831094958 | 75 | 103 | 0.0 | 0.0 | 0.00 | 0.00 | 0.00 | 100 | 1014.4 |
| 20260831094856 | 75 | 103 | 0.0 | 0.0 | 0.00 | 0.00 | 0.00 | 100 | 1014.5 |
| 20260831094757 | 75 | 103 | 0.0 | 0.0 | 0.00 | 0.00 | 0.00 | 100 | 1014.5 |
| 20260831094656 | 75 | 103 | 0.0 | 0.0 | 0.00 | 0.00 | 0.00 | 100 | 1014.5 |
| 20260831094555 | 75 | 103 | 0.0 | 0.0 | 0.00 | 0.00 | 0.00 | 100 | 1014.5 |
| 20260831094457 | 75 | 103 | 0.0 | 0.0 | 0.00 | 0.00 | 0.00 | 100 | 1014.4 |
| 20260831094256 | 75 | 103 | 0.0 | 0.0 | 0.00 | 0.00 | 0.00 | 100 | 1014.5 |
| 20260831094157 | 75 | 103 | 0.0 | 0.0 | 0.00 | 0.00 | 0.00 | 100 | 1014.5 |
| 20260831093958 | 75 | 103 | 0.0 | 0.0 | 0.00 | 0.00 | 0.00 | 100 | 1014.4 |
| 20260831093856 | 75 | 103 | 0.0 | 0.0 | 0.00 | 0.00 | 0.00 | 100 | 1014.4 |
| 20260831093557 | 75 | 103 | 0.0 | 0.0 | 0.00 | 0.00 | 0.00 | 100 | 1014.4 |
| 20260831093457 | 75 | 103 | 0.0 | 0.0 | 0.00 | 0.00 | 0.00 | 100 | 1014.4 |
| 20260831093257 | 75 | 103 | 0.0 | 0.0 | 0.00 | 0.00 | 0.00 | 100 | 1014.3 |
| 20260831093157 | 75 | 103 | 0.0 | 0.0 | 0.00 | 0.00 | 0.00 | 100 | 1014.4 |
| 20260831093057 | 75 | 103 | 0.0 | 0.0 | 0.00 | 0.00 | 0.00 | 100 | 1014.4 |
| 20260831092958 | 76 | 103 | 0.0 | 0.0 | 0.00 | 0.00 | 0.00 | 100 | 1014.3 |
| 20260831092855 | 76 | 103 | 0.0 | 0.0 | 0.00 | 0.00 | 0.00 | 100 | 1014.4 |
| 20260831092757 | 76 | 103 | 0.0 | 0.0 | 0.00 | 0.00 | 0.00 | 100 | 1014.4 |
| 20260831092555 | 76 | 103 | 0.0 | 0.0 | 0.00 | 0.00 | 0.00 | 100 | 1014.4 |
| 20260831092457 | 76 | 103 | 0.0 | 0.0 | 0.00 | 0.00 | 0.00 | 100 | 1014.4 |
| 20260831092256 | 76 | 103 | 0.0 | 0.0 | 0.00 | 0.00 | 0.00 | 100 | 1014.3 |
| 20260831092157 | 76 | 103 | 0.0 | 0.0 | 0.00 | 0.00 | 0.00 | 100 | 1014.3 |
| 20260831092056 | 76 | 103 | 0.0 | 0.0 | 0.00 | 0.00 | 0.00 | 100 | 1014.4 |
| 20260831091958 | 76 | 103 | 0.0 | 0.0 | 0.00 | 0.00 | 0.00 | 100 | 1014.3 |
| 20260831091855 | 76 | 103 | 0.0 | 0.0 | 0.00 | 0.00 | 0.00 | 100 | 1014.3 |
| 20260831091755 | 76 | 103 | 0.0 | 0.0 | 0.00 | 0.00 | 0.00 | 100 | 1014.3 |
| 20260831091656 | 76 | 103 | 0.0 | 0.0 | 0.00 | 0.00 | 0.00 | 2 | 1014.3 |
| 20260831091555 | 76 | 103 | 0.0 | 0.0 | 0.00 | 0.00 | 0.00 | 1 | 1014.3 |
| 20260831091457 | 76 | 103 | 0.0 | 0.0 | 0.00 | 0.00 | 0.00 | 100 | 1014.3 |
| 20260831091357 | 76 | 103 | 0.0 | 0.0 | 0.00 | 0.00 | 0.00 | 100 | 1014.2 |
| 20260831091054 | 76 | 103 | 0.0 | 0.0 | 0.00 | 0.00 | 0.00 | 100 | 1014.3 |
| 20260831090959 | 76 | 103 | 0.0 | 0.0 | 0.00 | 0.00 | 0.00 | 100 | 1014.2 |
| 20260831090657 | 76 | 103 | 0.0 | 0.0 | 0.00 | 0.00 | 0.00 | 1 | 1014.3 |
| 20260831090557 | 76 | 103 | 0.0 | 0.0 | 0.00 | 0.00 | 0.00 | 100 | 1014.3 |
| 20260831090457 | 76 | 103 | 0.0 | 0.0 | 0.00 | 0.00 | 0.00 | 100 | 1014.3 |
| 20260831090357 | 76 | 103 | 0.0 | 0.0 | 0.00 | 0.00 | 0.00 | 100 | 1014.3 |
| 20260831090255 | 76 | 103 | 0.0 | 0.0 | 0.00 | 0.00 | 0.00 | 100 | 1014.4 |
| 20260831090155 | 76 | 103 | 0.0 | 0.0 | 0.00 | 0.00 | 0.00 | 100 | 1014.4 |
| 20260831090056 | 76 | 103 | 0.0 | 0.0 | 0.00 | 0.00 | 0.00 | 100 | 1014.4 |
| 20260831085956 | 76 | 103 | 0.0 | 0.0 | 0.00 | 0.00 | 0.00 | 100 | 1014.4 |
| 20260831085855 | 76 | 103 | 0.0 | 0.0 | 0.00 | 0.00 | 0.00 | 100 | 1014.4 |
| 20260831085757 | 76 | 103 | 0.0 | 0.0 | 0.00 | 0.00 | 0.00 | 100 | 1014.4 |
| 20260831085658 | 76 | 103 | 0.0 | 0.0 | 0.00 | 0.00 | 0.00 | 100 | 1014.4 |
| 20260831085557 | 76 | 103 | 0.0 | 0.0 | 0.00 | 0.00 | 0.00 | 100 | 1014.4 |
| 20260831085455 | 76 | 103 | 0.0 | 0.0 | 0.00 | 0.00 | 0.00 | 100 | 1014.4 |
| 20260831085357 | 76 | 103 | 0.0 | 0.0 | 0.00 | 0.00 | 0.00 | 100 | 1014.4 |
| 20260831085257 | 76 | 103 | 0.0 | 0.0 | 0.00 | 0.00 | 0.00 | 100 | 1014.4 |
| 20260831085157 | 76 | 103 | 0.0 | 0.0 | 0.00 | 0.00 | 0.00 | 100 | 1014.5 |
| 20260831084956 | 76 | 103 | 0.0 | 0.0 | 0.00 | 0.00 | 0.00 | 100 | 1014.5 |
| 20260831084857 | 76 | 103 | 0.0 | 0.0 | 0.00 | 0.00 | 0.00 | 100 | 1014.5 |
| 20260831084757 | 76 | 103 | 0.0 | 0.0 | 0.00 | 0.00 | 0.00 | 100 | 1014.5 |
| 20260831084556 | 76 | 103 | 0.0 | 0.0 | 0.00 | 0.00 | 0.00 | 3 | 1014.6 |
| 20260831084457 | 76 | 103 | 0.0 | 0.0 | 0.00 | 0.00 | 0.00 | 6 | 1014.6 |
| 20260831084357 | 77 | 103 | 0.0 | 0.0 | 0.00 | 0.00 | 0.00 | 6 | 1014.6 |
| 20260831084257 | 77 | 103 | 0.0 | 0.0 | 0.00 | 0.00 | 0.00 | 6 | 1014.5 |
| 20260831084057 | 77 | 103 | 0.0 | 0.0 | 0.00 | 0.00 | 0.00 | 8 | 1014.5 |
| 20260831083959 | 77 | 103 | 0.0 | 0.0 | 0.00 | 0.00 | 0.00 | 7 | 1014.5 |
| 20260831083855 | 77 | 103 | 0.0 | 0.0 | 0.00 | 0.00 | 0.00 | 8 | 1014.5 |
| 20260831083755 | 77 | 103 | 0.0 | 0.0 | 0.00 | 0.00 | 0.00 | 8 | 1014.5 |
| 20260831083555 | 77 | 103 | 0.0 | 0.0 | 0.00 | 0.00 | 0.00 | 8 | 1014.5 |
| 20260831083455 | 77 | 103 | 0.0 | 0.0 | 0.00 | 0.00 | 0.00 | 7 | 1014.6 |
| 20260831083355 | 77 | 103 | 0.0 | 0.0 | 0.00 | 0.00 | 0.00 | 7 | 1014.5 |
| 20260831083256 | 77 | 103 | 0.0 | 0.0 | 0.00 | 0.00 | 0.00 | 7 | 1014.6 |
| 20260831083055 | 77 | 103 | 0.0 | 0.0 | 0.00 | 0.00 | 0.00 | 6 | 1014.6 |
| 20260831082956 | 77 | 103 | 0.0 | 0.0 | 0.00 | 0.00 | 0.00 | 5 | 1014.6 |
| 20260831082855 | 77 | 103 | 0.0 | 0.0 | 0.00 | 0.00 | 0.00 | 6 | 1014.6 |
| 20260831082657 | 77 | 103 | 0.0 | 0.0 | 0.00 | 0.00 | 0.00 | 8 | 1014.6 |
| 20260831082556 | 77 | 103 | 0.0 | 0.0 | 0.00 | 0.00 | 0.00 | 9 | 1014.6 |
| 20260831082259 | 77 | 103 | 0.0 | 0.0 | 0.00 | 0.00 | 0.00 | 12 | 1014.5 |
| 20260831082156 | 77 | 103 | 0.0 | 0.0 | 0.00 | 0.00 | 0.00 | 12 | 1014.6 |
| 20260831082055 | 77 | 103 | 0.0 | 0.0 | 0.00 | 0.00 | 0.00 | 13 | 1014.5 |
| 20260831081959 | 77 | 103 | 0.0 | 0.0 | 0.00 | 0.00 | 0.00 | 12 | 1014.5 |
| 20260831081857 | 77 | 103 | 0.0 | 0.0 | 0.00 | 0.00 | 0.00 | 11 | 1014.5 |
| 20260831081755 | 77 | 103 | 0.0 | 0.0 | 0.00 | 0.00 | 0.00 | 11 | 1014.5 |
| 20260831081654 | 77 | 103 | 0.0 | 0.0 | 0.00 | 0.00 | 0.00 | 12 | 1014.5 |
| 20260831081557 | 77 | 103 | 0.0 | 0.0 | 0.00 | 0.00 | 0.00 | 12 | 1014.5 |
| 20260831081457 | 77 | 103 | 0.0 | 0.0 | 0.00 | 0.00 | 0.00 | 11 | 1014.5 |
| 20260831081358 | 77 | 103 | 0.0 | 0.0 | 0.00 | 0.00 | 0.00 | 10 | 1014.5 |
| 20260831081255 | 77 | 103 | 0.0 | 0.0 | 0.00 | 0.00 | 0.00 | 11 | 1014.5 |
| 20260831081157 | 77 | 103 | 0.0 | 0.0 | 0.00 | 0.00 | 0.00 | 12 | 1014.5 |
| 20260831081054 | 77 | 103 | 0.0 | 0.0 | 0.00 | 0.00 | 0.00 | 13 | 1014.5 |
| 20260831080855 | 77 | 103 | 0.0 | 0.0 | 0.00 | 0.00 | 0.00 | 13 | 1014.5 |
| 20260831080758 | 77 | 103 | 0.0 | 0.0 | 0.00 | 0.00 | 0.00 | 13 | 1014.5 |
| 20260831080657 | 77 | 103 | 0.0 | 0.0 | 0.00 | 0.00 | 0.00 | 10 | 1014.5 |
| 20260831080455 | 77 | 103 | 0.0 | 0.0 | 0.00 | 0.00 | 0.00 | 12 | 1014.6 |
| 20260831080358 | 77 | 103 | 0.0 | 0.0 | 0.00 | 0.00 | 0.00 | 12 | 1014.6 |
| 20260831080256 | 77 | 103 | 0.0 | 0.0 | 0.00 | 0.00 | 0.00 | 13 | 1014.6 |
| 20260831080155 | 77 | 103 | 0.0 | 0.0 | 0.00 | 0.00 | 0.00 | 14 | 1014.6 |
| 20260831080054 | 77 | 103 | 0.0 | 0.0 | 0.00 | 0.00 | 0.00 | 16 | 1014.6 |
| 20260831080002 | 77 | 103 | 0.0 | 0.0 | 0.00 | 0.00 | 0.00 | 16 | 1014.6 |
| 20260831075857 | 77 | 103 | 0.0 | 0.0 | 0.00 | 0.00 | 0.00 | 16 | 1014.6 |
| 20260831075655 | 78 | 103 | 0.0 | 0.0 | 0.00 | 0.00 | 0.00 | 15 | 1014.5 |
| 20260831075557 | 78 | 103 | 0.0 | 0.0 | 0.00 | 0.00 | 0.00 | 15 | 1014.5 |
| 20260831075357 | 78 | 103 | 0.0 | 0.0 | 0.00 | 0.00 | 0.00 | 16 | 1014.5 |
| 20260831075255 | 78 | 103 | 0.0 | 0.0 | 0.00 | 0.00 | 0.00 | 16 | 1014.6 |
| 20260831074957 | 78 | 103 | 0.0 | 0.0 | 0.00 | 0.00 | 0.00 | 17 | 1014.5 |
| 20260831074855 | 78 | 103 | 0.0 | 0.0 | 0.00 | 0.00 | 0.00 | 17 | 1014.6 |
| 20260831074757 | 78 | 103 | 0.0 | 0.0 | 0.00 | 0.00 | 0.00 | 17 | 1014.6 |
| 20260831074657 | 78 | 103 | 0.0 | 0.0 | 0.00 | 0.00 | 0.00 | 18 | 1014.6 |
| 20260831074455 | 78 | 103 | 0.0 | 0.0 | 0.00 | 0.00 | 0.00 | 18 | 1014.5 |
| 20260831074355 | 78 | 103 | 0.0 | 0.0 | 0.00 | 0.00 | 0.00 | 16 | 1014.6 |
| 20260831074257 | 78 | 103 | 0.0 | 0.0 | 0.00 | 0.00 | 0.00 | 15 | 1014.6 |
| 20260831074158 | 78 | 103 | 0.0 | 0.0 | 0.00 | 0.00 | 0.00 | 15 | 1014.5 |
| 20260831073956 | 78 | 103 | 0.0 | 0.0 | 0.00 | 0.00 | 0.00 | 15 | 1014.5 |
| 20260831073857 | 78 | 103 | 0.0 | 0.0 | 0.00 | 0.00 | 0.00 | 16 | 1014.5 |
| 20260831073758 | 78 | 103 | 0.0 | 0.0 | 0.00 | 0.00 | 0.00 | 17 | 1014.5 |
| 20260831073655 | 78 | 103 | 0.0 | 0.0 | 0.00 | 0.00 | 0.00 | 19 | 1014.5 |
| 20260831073555 | 78 | 103 | 0.0 | 0.0 | 0.00 | 0.00 | 0.00 | 19 | 1014.5 |
| 20260831073457 | 78 | 103 | 0.0 | 0.0 | 0.00 | 0.00 | 0.00 | 20 | 1014.5 |
| 20260831073358 | 78 | 103 | 0.0 | 0.0 | 0.00 | 0.00 | 0.00 | 20 | 1014.5 |
| 20260831073255 | 78 | 103 | 0.0 | 0.0 | 0.00 | 0.00 | 0.00 | 21 | 1014.6 |
| 20260831073155 | 78 | 103 | 0.0 | 0.0 | 0.00 | 0.00 | 0.00 | 21 | 1014.5 |
| 20260831073054 | 78 | 103 | 0.0 | 0.0 | 0.00 | 0.00 | 0.00 | 20 | 1014.5 |
| 20260831072855 | 78 | 103 | 0.0 | 0.0 | 0.00 | 0.00 | 0.00 | 19 | 1014.5 |
| 20260831072757 | 78 | 103 | 0.0 | 0.0 | 0.00 | 0.00 | 0.00 | 18 | 1014.5 |
| 20260831072657 | 78 | 103 | 0.0 | 0.0 | 0.00 | 0.00 | 0.00 | 17 | 1014.5 |
| 20260831072557 | 78 | 103 | 0.0 | 0.0 | 0.00 | 0.00 | 0.00 | 18 | 1014.5 |
| 20260831072455 | 78 | 103 | 0.0 | 0.0 | 0.00 | 0.00 | 0.00 | 18 | 1014.5 |
| 20260831072355 | 78 | 103 | 0.0 | 0.0 | 0.00 | 0.00 | 0.00 | 19 | 1014.5 |
| 20260831072257 | 78 | 103 | 0.0 | 0.0 | 0.00 | 0.00 | 0.00 | 19 | 1014.6 |
| 20260831072157 | 78 | 103 | 0.0 | 0.0 | 0.00 | 0.00 | 0.00 | 20 | 1014.5 |
| 20260831072055 | 78 | 103 | 0.0 | 0.0 | 0.00 | 0.00 | 0.00 | 19 | 1014.6 |
| 20260831071956 | 78 | 103 | 0.0 | 0.0 | 0.00 | 0.00 | 0.00 | 20 | 1014.6 |
| 20260831071856 | 78 | 103 | 0.0 | 0.0 | 0.00 | 0.00 | 0.00 | 20 | 1014.6 |
| 20260831071758 | 79 | 103 | 0.0 | 0.0 | 0.00 | 0.00 | 0.00 | 21 | 1014.6 |
| 20260831071656 | 79 | 103 | 0.0 | 0.0 | 0.00 | 0.00 | 0.00 | 20 | 1014.6 |
| 20260831071555 | 79 | 103 | 0.0 | 0.0 | 0.00 | 0.00 | 0.00 | 20 | 1014.6 |
| 20260831071457 | 79 | 103 | 0.0 | 0.0 | 0.00 | 0.00 | 0.00 | 19 | 1014.7 |
| 20260831071257 | 79 | 103 | 0.0 | 0.0 | 0.00 | 0.00 | 0.00 | 21 | 1014.7 |
| 20260831071057 | 79 | 103 | 0.0 | 0.0 | 0.00 | 0.00 | 0.00 | 23 | 1014.7 |
| 20260831070959 | 79 | 103 | 0.0 | 0.0 | 0.00 | 0.00 | 0.00 | 24 | 1014.7 |
| 20260831070855 | 79 | 103 | 0.0 | 0.0 | 0.00 | 0.00 | 0.00 | 24 | 1014.7 |
| 20260831070755 | 79 | 103 | 0.0 | 0.0 | 0.00 | 0.00 | 0.00 | 23 | 1014.7 |
| 20260831070655 | 79 | 103 | 0.0 | 0.0 | 0.00 | 0.00 | 0.00 | 22 | 1014.7 |
| 20260831070355 | 79 | 103 | 0.0 | 0.0 | 0.00 | 0.00 | 0.00 | 24 | 1014.8 |
| 20260831070255 | 79 | 103 | 0.0 | 0.0 | 0.00 | 0.00 | 0.00 | 24 | 1014.8 |
| 20260831070157 | 79 | 103 | 0.0 | 0.0 | 0.00 | 0.00 | 0.00 | 25 | 1014.8 |
| 20260831070057 | 79 | 103 | 0.0 | 0.0 | 0.00 | 0.00 | 0.00 | 25 | 1014.7 |
| 20260831065956 | 79 | 103 | 0.0 | 0.0 | 0.00 | 0.00 | 0.00 | 25 | 1014.7 |
| 20260831065854 | 79 | 103 | 0.0 | 0.0 | 0.00 | 0.00 | 0.00 | 25 | 1014.7 |
| 20260831065758 | 79 | 103 | 0.0 | 0.0 | 0.00 | 0.00 | 0.00 | 26 | 1014.8 |
| 20260831065657 | 79 | 103 | 0.0 | 0.0 | 0.00 | 0.00 | 0.00 | 26 | 1014.7 |
| 20260831065555 | 79 | 103 | 0.0 | 0.0 | 0.00 | 0.00 | 0.00 | 27 | 1014.8 |
| 20260831065455 | 79 | 103 | 0.0 | 0.0 | 0.00 | 0.00 | 0.00 | 26 | 1014.8 |
| 20260831065357 | 79 | 103 | 0.0 | 0.0 | 0.00 | 0.00 | 0.00 | 26 | 1014.8 |
| 20260831065257 | 79 | 103 | 0.0 | 0.0 | 0.00 | 0.00 | 0.00 | 26 | 1014.8 |
| 20260831065155 | 79 | 103 | 0.0 | 0.0 | 0.00 | 0.00 | 0.00 | 25 | 1014.8 |
| 20260831065055 | 79 | 103 | 0.0 | 0.0 | 0.00 | 0.00 | 0.00 | 23 | 1014.8 |
| 20260831064958 | 79 | 103 | 0.0 | 0.0 | 0.00 | 0.00 | 0.00 | 23 | 1014.9 |
| 20260831064857 | 79 | 103 | 0.0 | 0.0 | 0.00 | 0.00 | 0.00 | 23 | 1014.9 |
| 20260831064758 | 79 | 103 | 0.0 | 0.0 | 0.00 | 0.00 | 0.00 | 24 | 1014.8 |
| 20260831064557 | 79 | 103 | 0.0 | 0.0 | 0.00 | 0.00 | 0.00 | 25 | 1014.9 |
| 20260831064454 | 80 | 103 | 0.0 | 0.0 | 0.00 | 0.00 | 0.00 | 26 | 1014.9 |
| 20260831064355 | 80 | 103 | 0.0 | 0.0 | 0.00 | 0.00 | 0.00 | 25 | 1014.9 |
| 20260831064254 | 80 | 103 | 0.0 | 0.0 | 0.00 | 0.00 | 0.00 | 26 | 1014.9 |
| 20260831064157 | 80 | 103 | 0.0 | 0.0 | 0.00 | 0.00 | 0.00 | 27 | 1014.9 |
| 20260831063957 | 80 | 103 | 0.0 | 0.0 | 0.00 | 0.00 | 0.00 | 27 | 1015.0 |
| 20260831063854 | 80 | 103 | 0.0 | 0.0 | 0.00 | 0.00 | 0.00 | 27 | 1015.0 |
| 20260831063657 | 80 | 103 | 0.0 | 0.0 | 0.00 | 0.00 | 0.00 | 27 | 1014.9 |
| 20260831063455 | 80 | 103 | 0.0 | 0.0 | 0.00 | 0.00 | 0.00 | 27 | 1015.0 |
| 20260831063357 | 80 | 103 | 0.0 | 0.0 | 0.00 | 0.00 | 0.00 | 27 | 1015.1 |
| 20260831063257 | 80 | 103 | 0.0 | 0.0 | 0.00 | 0.00 | 0.00 | 27 | 1015.0 |
| 20260831063055 | 80 | 103 | 0.0 | 0.0 | 0.00 | 0.00 | 0.00 | 26 | 1015.0 |
| 20260831062956 | 80 | 103 | 0.0 | 0.0 | 0.00 | 0.00 | 0.00 | 26 | 1015.0 |
| 20260831062857 | 80 | 103 | 0.0 | 0.0 | 0.00 | 0.00 | 0.00 | 26 | 1015.0 |
| 20260831062755 | 80 | 103 | 0.0 | 0.0 | 0.00 | 0.00 | 0.00 | 27 | 1015.0 |
| 20260831062654 | 80 | 103 | 0.0 | 0.0 | 0.00 | 0.00 | 0.00 | 27 | 1015.1 |
| 20260831062557 | 80 | 103 | 0.0 | 0.0 | 0.00 | 0.00 | 0.00 | 27 | 1015.0 |
| 20260831062457 | 80 | 103 | 0.0 | 0.0 | 0.00 | 0.00 | 0.00 | 26 | 1015.0 |
| 20260831062357 | 80 | 103 | 0.0 | 0.0 | 0.00 | 0.00 | 0.00 | 26 | 1015.0 |
| 20260831062255 | 80 | 103 | 0.0 | 0.0 | 0.00 | 0.00 | 0.00 | 26 | 1014.9 |
| 20260831062155 | 80 | 103 | 0.0 | 0.0 | 0.00 | 0.00 | 0.00 | 28 | 1015.0 |
| 20260831061855 | 80 | 103 | 0.0 | 0.0 | 0.00 | 0.00 | 0.00 | 27 | 1014.9 |
| 20260831061755 | 80 | 103 | 0.0 | 0.0 | 0.00 | 0.00 | 0.00 | 27 | 1014.9 |
| 20260831061657 | 80 | 103 | 0.0 | 0.0 | 0.00 | 0.00 | 0.00 | 26 | 1014.9 |
| 20260831061455 | 80 | 103 | 0.0 | 0.0 | 0.00 | 0.00 | 0.00 | 27 | 1014.9 |
| 20260831061355 | 80 | 103 | 0.0 | 1.0 | 0.00 | 0.00 | 0.00 | 27 | 1015.0 |
| 20260831061257 | 80 | 103 | 0.0 | 1.0 | 0.00 | 0.00 | 0.00 | 27 | 1014.9 |
| 20260831061157 | 80 | 103 | 0.0 | 1.0 | 0.00 | 0.00 | 0.00 | 26 | 1014.9 |
| 20260831061057 | 80 | 103 | 0.0 | 1.0 | 0.00 | 0.00 | 0.00 | 26 | 1014.9 |
| 20260831060956 | 80 | 103 | 0.0 | 1.0 | 0.00 | 0.00 | 0.00 | 27 | 1014.9 |
| 20260831060855 | 80 | 103 | 0.0 | 1.0 | 0.00 | 0.00 | 0.00 | 26 | 1014.9 |
| 20260831060755 | 80 | 103 | 0.0 | 1.0 | 0.00 | 0.00 | 0.00 | 27 | 1014.9 |
| 20260831060657 | 80 | 103 | 0.0 | 1.0 | 0.00 | 0.00 | 0.00 | 27 | 1015.0 |
| 20260831060555 | 80 | 103 | 1.0 | 1.0 | 0.00 | 0.00 | 0.00 | 28 | 1014.9 |
| 20260831060457 | 80 | 103 | 0.0 | 1.0 | 0.00 | 0.00 | 0.00 | 27 | 1015.0 |
| 20260831060357 | 80 | 103 | 0.0 | 1.0 | 0.00 | 0.00 | 0.00 | 28 | 1014.9 |
| 20260831060257 | 80 | 103 | 0.0 | 1.0 | 0.00 | 0.00 | 0.00 | 28 | 1014.9 |
| 20260831060155 | 80 | 103 | 0.0 | 1.0 | 0.00 | 0.00 | 0.00 | 27 | 1015.0 |
| 20260831060001 | 80 | 103 | 0.0 | 0.0 | 0.00 | 0.00 | 0.00 | 28 | 1015.0 |
| 20260831055858 | 80 | 103 | 0.0 | 0.0 | 0.00 | 0.00 | 0.00 | 28 | 1015.0 |
| 20260831055756 | 80 | 103 | 0.0 | 0.0 | 0.00 | 0.00 | 0.00 | 27 | 1015.0 |
| 20260831055656 | 80 | 103 | 0.0 | 1.0 | 0.00 | 0.00 | 0.00 | 27 | 1015.0 |
| 20260831055557 | 80 | 103 | 0.0 | 1.0 | 0.00 | 0.00 | 0.00 | 28 | 1015.0 |
| 20260831055458 | 80 | 103 | 0.0 | 1.0 | 0.00 | 0.00 | 0.00 | 28 | 1015.1 |
| 20260831055357 | 80 | 103 | 0.0 | 1.0 | 0.00 | 0.00 | 0.00 | 28 | 1015.0 |
| 20260831055256 | 80 | 103 | 0.0 | 1.0 | 0.00 | 0.00 | 0.00 | 28 | 1015.1 |
| 20260831055158 | 80 | 103 | 0.0 | 1.0 | 0.00 | 0.00 | 0.00 | 28 | 1015.1 |
| 20260831055057 | 80 | 103 | 0.0 | 1.0 | 0.00 | 0.00 | 0.00 | 27 | 1015.0 |
| 20260831054856 | 80 | 103 | 0.0 | 1.0 | 0.00 | 0.00 | 0.00 | 28 | 1015.1 |
| 20260831054756 | 81 | 103 | 0.0 | 1.0 | 0.00 | 0.00 | 0.00 | 29 | 1015.1 |
| 20260831054657 | 81 | 103 | 0.0 | 1.0 | 0.00 | 0.00 | 0.00 | 29 | 1015.2 |
| 20260831054558 | 81 | 103 | 0.0 | 1.0 | 0.00 | 0.00 | 0.00 | 29 | 1015.1 |
| 20260831054456 | 81 | 103 | 0.0 | 1.0 | 0.00 | 0.00 | 0.00 | 29 | 1015.2 |
| 20260831054257 | 81 | 103 | 0.0 | 1.0 | 0.00 | 0.00 | 0.00 | 29 | 1015.2 |
| 20260831054158 | 81 | 103 | 0.0 | 1.0 | 0.00 | 0.00 | 0.00 | 30 | 1015.2 |
| 20260831054056 | 81 | 103 | 0.0 | 1.0 | 0.00 | 0.00 | 0.00 | 31 | 1015.2 |
| 20260831053957 | 81 | 103 | 0.0 | 1.0 | 0.00 | 0.00 | 0.00 | 30 | 1015.1 |
| 20260831053857 | 81 | 103 | 0.0 | 1.0 | 0.00 | 0.00 | 0.00 | 31 | 1015.1 |
| 20260831053758 | 81 | 103 | 0.0 | 1.0 | 0.00 | 0.00 | 0.00 | 30 | 1015.2 |
| 20260831053657 | 81 | 103 | 0.0 | 1.0 | 0.00 | 0.00 | 0.00 | 30 | 1015.1 |
| 20260831053556 | 81 | 103 | 0.0 | 1.0 | 0.00 | 0.00 | 0.00 | 30 | 1015.2 |
| 20260831053458 | 81 | 103 | 0.0 | 1.0 | 0.00 | 0.00 | 0.00 | 30 | 1015.1 |
| 20260831053357 | 81 | 103 | 0.0 | 1.0 | 0.00 | 0.00 | 0.00 | 31 | 1015.1 |
| 20260831053257 | 81 | 103 | 0.0 | 0.0 | 0.00 | 0.00 | 0.00 | 32 | 1015.1 |
| 20260831053156 | 81 | 103 | 0.0 | 0.0 | 0.00 | 0.00 | 0.00 | 32 | 1015.2 |
| 20260831053057 | 81 | 103 | 0.0 | 0.0 | 0.00 | 0.00 | 0.00 | 31 | 1015.2 |
| 20260831053000 | 81 | 103 | 0.0 | 0.0 | 0.00 | 0.00 | 0.00 | 32 | 1015.2 |
| 20260831052857 | 81 | 103 | 0.0 | 0.0 | 0.00 | 0.00 | 0.00 | 33 | 1015.1 |
| 20260831052655 | 81 | 103 | 0.0 | 0.0 | 0.00 | 0.00 | 0.00 | 33 | 1015.1 |
| 20260831052558 | 81 | 103 | 0.0 | 0.0 | 0.00 | 0.00 | 0.00 | 34 | 1015.1 |
| 20260831052457 | 81 | 103 | 0.0 | 0.0 | 0.00 | 0.00 | 0.00 | 35 | 1015.1 |
| 20260831052257 | 81 | 103 | 0.0 | 0.0 | 0.00 | 0.00 | 0.00 | 36 | 1015.0 |
| 20260831052156 | 81 | 103 | 0.0 | 0.0 | 0.00 | 0.00 | 0.00 | 38 | 1015.1 |
| 20260831052055 | 81 | 103 | 0.0 | 0.0 | 0.00 | 0.00 | 0.00 | 38 | 1015.1 |
| 20260831051959 | 81 | 103 | 0.0 | 0.0 | 0.00 | 0.00 | 0.00 | 38 | 1015.1 |
| 20260831051857 | 81 | 103 | 0.0 | 0.0 | 0.00 | 0.00 | 0.00 | 38 | 1015.0 |
| 20260831051658 | 81 | 103 | 0.0 | 0.0 | 0.00 | 0.00 | 0.00 | 36 | 1015.0 |
| 20260831051558 | 81 | 103 | 0.0 | 0.0 | 0.00 | 0.00 | 0.00 | 36 | 1015.1 |
| 20260831051457 | 81 | 103 | 0.0 | 0.0 | 0.00 | 0.00 | 0.00 | 36 | 1015.0 |
| 20260831051357 | 81 | 103 | 0.0 | 0.0 | 0.00 | 0.00 | 0.00 | 36 | 1014.9 |
| 20260831051257 | 81 | 103 | 0.0 | 0.0 | 0.00 | 0.00 | 0.00 | 37 | 1015.0 |
| 20260831051156 | 81 | 103 | 0.0 | 0.0 | 0.00 | 0.00 | 0.00 | 37 | 1014.9 |
| 20260831051057 | 81 | 103 | 0.0 | 0.0 | 0.00 | 0.00 | 0.00 | 38 | 1014.9 |
| 20260831050958 | 81 | 103 | 0.0 | 0.0 | 0.00 | 0.00 | 0.00 | 38 | 1014.9 |
| 20260831050857 | 81 | 103 | 0.0 | 0.0 | 0.00 | 0.00 | 0.00 | 39 | 1015.0 |
| 20260831050656 | 81 | 103 | 0.0 | 0.0 | 0.00 | 0.00 | 0.00 | 38 | 1014.9 |
| 20260831050457 | 81 | 103 | 0.0 | 0.0 | 0.00 | 0.00 | 0.00 | 36 | 1014.9 |
| 20260831050358 | 81 | 103 | 0.0 | 0.0 | 0.00 | 0.00 | 0.00 | 36 | 1014.9 |
| 20260831050158 | 82 | 103 | 0.0 | 1.0 | 0.00 | 0.00 | 0.00 | 37 | 1014.9 |
| 20260831050057 | 82 | 103 | 0.0 | 1.0 | 0.00 | 0.00 | 0.00 | 38 | 1014.8 |
| 20260831050005 | 82 | 103 | 0.0 | 1.0 | 0.00 | 0.00 | 0.00 | 37 | 1014.8 |
| 20260831045857 | 82 | 103 | 0.0 | 1.0 | 0.00 | 0.00 | 0.00 | 38 | 1014.8 |
| 20260831045757 | 82 | 103 | 0.0 | 1.0 | 0.00 | 0.00 | 0.00 | 38 | 1014.8 |
| 20260831045658 | 82 | 103 | 0.0 | 1.0 | 0.00 | 0.00 | 0.00 | 37 | 1014.8 |
| 20260831045558 | 82 | 103 | 0.0 | 1.0 | 0.00 | 0.00 | 0.00 | 38 | 1014.8 |
| 20260831045458 | 82 | 103 | 0.0 | 1.0 | 0.00 | 0.00 | 0.00 | 38 | 1014.8 |
| 20260831045257 | 82 | 103 | 0.0 | 1.0 | 0.00 | 0.00 | 0.00 | 39 | 1014.8 |
| 20260831045157 | 82 | 103 | 0.0 | 0.0 | 0.00 | 0.00 | 0.00 | 40 | 1014.8 |
| 20260831045057 | 82 | 103 | 0.0 | 0.0 | 0.00 | 0.00 | 0.00 | 39 | 1014.8 |
| 20260831044856 | 82 | 103 | 0.0 | 1.0 | 0.00 | 0.00 | 0.00 | 40 | 1014.8 |
| 20260831044757 | 82 | 103 | 0.0 | 1.0 | 0.00 | 0.00 | 0.00 | 39 | 1014.8 |
| 20260831044657 | 82 | 103 | 0.0 | 1.0 | 0.00 | 0.00 | 0.00 | 39 | 1014.7 |
| 20260831044558 | 82 | 103 | 0.0 | 1.0 | 0.00 | 0.00 | 0.00 | 39 | 1014.7 |
| 20260831044458 | 82 | 103 | 0.0 | 1.0 | 0.00 | 0.00 | 0.00 | 40 | 1014.8 |
| 20260831044357 | 82 | 103 | 0.0 | 1.0 | 0.00 | 0.00 | 0.00 | 41 | 1014.8 |
| 20260831044257 | 82 | 103 | 0.0 | 1.0 | 0.00 | 0.00 | 0.00 | 41 | 1014.8 |
| 20260831044158 | 82 | 103 | 0.0 | 1.0 | 0.00 | 0.00 | 0.00 | 42 | 1014.8 |
| 20260831044057 | 82 | 103 | 0.0 | 1.0 | 0.00 | 0.00 | 0.00 | 42 | 1014.8 |
| 20260831043959 | 82 | 103 | 0.0 | 0.0 | 0.00 | 0.00 | 0.00 | 43 | 1014.8 |
| 20260831043857 | 82 | 103 | 0.0 | 0.0 | 0.00 | 0.00 | 0.00 | 44 | 1014.7 |
| 20260831043758 | 82 | 103 | 0.0 | 0.0 | 0.00 | 0.00 | 0.00 | 43 | 1014.7 |
| 20260831043558 | 82 | 103 | 0.0 | 0.0 | 0.00 | 0.00 | 0.00 | 44 | 1014.7 |
| 20260831043358 | 82 | 103 | 0.0 | 0.0 | 0.00 | 0.00 | 0.00 | 43 | 1014.7 |
| 20260831043257 | 82 | 103 | 0.0 | 0.0 | 0.00 | 0.00 | 0.00 | 43 | 1014.7 |
| 20260831042958 | 82 | 103 | 0.0 | 0.0 | 0.00 | 0.00 | 0.00 | 44 | 1014.7 |
| 20260831042758 | 82 | 103 | 0.0 | 0.0 | 0.00 | 0.00 | 0.00 | 44 | 1014.7 |
| 20260831042657 | 82 | 103 | 0.0 | 0.0 | 0.00 | 0.00 | 0.00 | 44 | 1014.7 |
| 20260831042559 | 82 | 103 | 0.0 | 0.0 | 0.00 | 0.00 | 0.00 | 44 | 1014.7 |
| 20260831042458 | 82 | 103 | 0.0 | 0.0 | 0.00 | 0.00 | 0.00 | 45 | 1014.7 |
| 20260831042357 | 82 | 103 | 0.0 | 0.0 | 0.00 | 0.00 | 0.00 | 46 | 1014.7 |
| 20260831042258 | 82 | 103 | 0.0 | 0.0 | 0.00 | 0.00 | 0.00 | 46 | 1014.7 |
| 20260831042057 | 82 | 103 | 0.0 | 0.0 | 0.00 | 0.00 | 0.00 | 45 | 1014.7 |
| 20260831041959 | 83 | 103 | 0.0 | 0.0 | 0.00 | 0.00 | 0.00 | 45 | 1014.7 |
| 20260831041757 | 83 | 103 | 0.0 | 1.0 | 0.00 | 0.00 | 0.00 | 45 | 1014.6 |
| 20260831041657 | 83 | 103 | 0.0 | 1.0 | 0.00 | 0.00 | 0.00 | 45 | 1014.6 |
| 20260831041558 | 83 | 103 | 0.0 | 1.0 | 0.00 | 0.00 | 0.00 | 45 | 1014.7 |
| 20260831041457 | 83 | 103 | 0.0 | 1.0 | 0.00 | 0.00 | 0.00 | 46 | 1014.6 |
| 20260831041357 | 83 | 103 | 0.0 | 1.0 | 0.00 | 0.00 | 0.00 | 46 | 1014.6 |
| 20260831041257 | 83 | 103 | 0.0 | 1.0 | 0.00 | 0.00 | 0.00 | 46 | 1014.7 |
| 20260831041158 | 83 | 103 | 0.0 | 1.0 | 0.00 | 0.00 | 0.00 | 46 | 1014.6 |
| 20260831041057 | 83 | 103 | 0.0 | 1.0 | 0.00 | 0.00 | 0.00 | 46 | 1014.6 |
| 20260831040857 | 83 | 103 | 0.0 | 1.0 | 0.00 | 0.00 | 0.00 | 46 | 1014.6 |
| 20260831040758 | 83 | 103 | 0.0 | 1.0 | 0.00 | 0.00 | 0.00 | 47 | 1014.6 |
| 20260831040657 | 83 | 103 | 0.0 | 1.0 | 0.00 | 0.00 | 0.00 | 48 | 1014.7 |
| 20260831040558 | 83 | 103 | 0.0 | 1.0 | 0.00 | 0.00 | 0.00 | 48 | 1014.7 |
| 20260831040357 | 83 | 103 | 0.0 | 1.0 | 0.00 | 0.00 | 0.00 | 48 | 1014.7 |
| 20260831040257 | 83 | 103 | 0.0 | 1.0 | 0.00 | 0.00 | 0.00 | 49 | 1014.6 |
| 20260831040057 | 83 | 103 | 0.0 | 1.0 | 0.00 | 0.00 | 0.00 | 49 | 1014.7 |
| 20260831035857 | 83 | 103 | 0.0 | 0.0 | 0.00 | 0.00 | 0.00 | 49 | 1014.7 |
| 20260831035757 | 83 | 103 | 0.0 | 0.0 | 0.00 | 0.00 | 0.00 | 49 | 1014.7 |
| 20260831035558 | 83 | 103 | 0.0 | 0.0 | 0.00 | 0.00 | 0.00 | 50 | 1014.7 |
| 20260831035458 | 83 | 103 | 0.0 | 0.0 | 0.00 | 0.00 | 0.00 | 50 | 1014.7 |
| 20260831035257 | 83 | 103 | 0.0 | 1.0 | 0.00 | 0.00 | 0.00 | 50 | 1014.7 |
| 20260831034959 | 83 | 103 | 0.0 | 1.0 | 0.00 | 0.00 | 0.00 | 50 | 1014.7 |
| 20260831034857 | 83 | 103 | 0.0 | 1.0 | 0.00 | 0.00 | 0.00 | 51 | 1014.6 |
| 20260831034758 | 83 | 103 | 0.0 | 1.0 | 0.00 | 0.00 | 0.00 | 51 | 1014.6 |
| 20260831034558 | 83 | 103 | 0.0 | 1.0 | 0.00 | 0.00 | 0.00 | 51 | 1014.6 |
| 20260831034457 | 83 | 103 | 0.0 | 2.0 | 0.00 | 0.00 | 0.00 | 50 | 1014.5 |
| 20260831034358 | 83 | 103 | 0.0 | 2.0 | 0.00 | 0.00 | 0.00 | 51 | 1014.5 |
| 20260831034258 | 84 | 103 | 0.0 | 2.0 | 0.00 | 0.00 | 0.00 | 52 | 1014.6 |
| 20260831034157 | 84 | 103 | 0.0 | 2.0 | 0.00 | 0.00 | 0.00 | 51 | 1014.5 |
| 20260831034056 | 84 | 103 | 0.0 | 2.0 | 0.00 | 0.00 | 0.00 | 52 | 1014.5 |
| 20260831034001 | 84 | 103 | 0.0 | 2.0 | 0.00 | 0.00 | 0.00 | 51 | 1014.5 |
| 20260831033857 | 84 | 103 | 0.0 | 2.0 | 0.00 | 0.00 | 0.00 | 51 | 1014.6 |
| 20260831033758 | 84 | 103 | 0.0 | 2.0 | 0.00 | 0.00 | 0.00 | 51 | 1014.6 |
| 20260831033557 | 84 | 97 | 0.0 | 2.0 | 0.00 | 0.00 | 0.00 | 51 | 1014.5 |
| 20260831033457 | 84 | 97 | 0.0 | 2.0 | 0.00 | 0.00 | 0.00 | 52 | 1014.5 |
| 20260831033357 | 84 | 97 | 0.0 | 2.0 | 0.00 | 0.00 | 0.00 | 52 | 1014.5 |
| 20260831033158 | 84 | 97 | 0.0 | 2.0 | 0.00 | 0.00 | 0.00 | 52 | 1014.4 |
| 20260831033057 | 84 | 97 | 0.0 | 2.0 | 0.00 | 0.00 | 0.00 | 52 | 1014.4 |
| 20260831032958 | 84 | 97 | 0.0 | 2.0 | 0.00 | 0.00 | 0.00 | 53 | 1014.4 |
| 20260831032856 | 84 | 97 | 0.0 | 2.0 | 0.00 | 0.00 | 0.00 | 53 | 1014.4 |
| 20260831032757 | 84 | 97 | 0.0 | 1.0 | 0.00 | 0.00 | 0.00 | 53 | 1014.4 |
| 20260831032657 | 84 | 97 | 0.0 | 1.0 | 0.00 | 0.00 | 0.00 | 54 | 1014.4 |
| 20260831032457 | 84 | 97 | 0.0 | 1.0 | 0.00 | 0.00 | 0.00 | 54 | 1014.3 |
| 20260831032358 | 84 | 97 | 0.0 | 1.0 | 0.00 | 0.00 | 0.00 | 54 | 1014.3 |
| 20260831032257 | 84 | 97 | 0.0 | 1.0 | 0.00 | 0.00 | 0.00 | 54 | 1014.3 |
| 20260831032157 | 84 | 97 | 0.0 | 1.0 | 0.00 | 0.00 | 0.00 | 54 | 1014.3 |
| 20260831031959 | 84 | 97 | 0.0 | 1.0 | 0.00 | 0.00 | 0.00 | 54 | 1014.3 |
| 20260831031857 | 84 | 97 | 0.0 | 1.0 | 0.00 | 0.00 | 0.00 | 55 | 1014.3 |
| 20260831031758 | 84 | 97 | 0.0 | 1.0 | 0.00 | 0.00 | 0.00 | 55 | 1014.3 |
| 20260831031657 | 84 | 97 | 0.0 | 1.0 | 0.00 | 0.00 | 0.00 | 55 | 1014.3 |
| 20260831031557 | 84 | 97 | 0.0 | 1.0 | 0.00 | 0.00 | 0.00 | 55 | 1014.3 |
| 20260831031457 | 84 | 97 | 0.0 | 2.0 | 0.00 | 0.00 | 0.00 | 55 | 1014.3 |
| 20260831031358 | 84 | 97 | 0.0 | 2.0 | 0.00 | 0.00 | 0.00 | 55 | 1014.3 |
| 20260831031256 | 84 | 97 | 0.0 | 2.0 | 0.00 | 0.00 | 0.00 | 56 | 1014.3 |
| 20260831031057 | 84 | 97 | 0.0 | 2.0 | 0.00 | 0.00 | 0.00 | 56 | 1014.3 |
| 20260831030959 | 84 | 97 | 0.0 | 2.0 | 0.00 | 0.00 | 0.00 | 56 | 1014.3 |
| 20260831030858 | 84 | 97 | 0.0 | 2.0 | 0.00 | 0.00 | 0.00 | 56 | 1014.2 |
| 20260831030757 | 84 | 97 | 0.0 | 2.0 | 0.00 | 0.00 | 0.00 | 56 | 1014.3 |
| 20260831030657 | 84 | 97 | 0.0 | 2.0 | 0.00 | 0.00 | 0.00 | 56 | 1014.2 |
| 20260831030557 | 84 | 97 | 1.0 | 2.0 | 0.00 | 0.00 | 0.00 | 57 | 1014.2 |
| 20260831030357 | 85 | 97 | 0.0 | 3.0 | 0.00 | 0.00 | 0.00 | 57 | 1014.2 |
| 20260831030257 | 85 | 97 | 0.0 | 3.0 | 0.00 | 0.00 | 0.00 | 57 | 1014.2 |
| 20260831030158 | 85 | 97 | 0.0 | 3.0 | 0.00 | 0.00 | 0.00 | 57 | 1014.2 |
| 20260831030056 | 85 | 97 | 0.0 | 3.0 | 0.00 | 0.00 | 0.00 | 57 | 1014.1 |
| 20260831030002 | 85 | 97 | 0.0 | 3.0 | 0.00 | 0.00 | 0.00 | 58 | 1014.1 |
| 20260831025857 | 85 | 97 | 0.0 | 3.0 | 0.00 | 0.00 | 0.00 | 58 | 1014.1 |
| 20260831025757 | 85 | 97 | 0.0 | 3.0 | 0.00 | 0.00 | 0.00 | 58 | 1014.1 |
| 20260831025656 | 85 | 97 | 0.0 | 3.0 | 0.00 | 0.00 | 0.00 | 58 | 1014.1 |
| 20260831025558 | 85 | 97 | 2.0 | 3.0 | 0.00 | 0.00 | 0.00 | 58 | 1014.0 |
| 20260831025458 | 85 | 97 | 0.0 | 3.0 | 0.00 | 0.00 | 0.00 | 58 | 1014.1 |
| 20260831025355 | 85 | 97 | 0.0 | 3.0 | 0.00 | 0.00 | 0.00 | 59 | 1014.0 |
| 20260831025057 | 85 | 97 | 0.0 | 3.0 | 0.00 | 0.00 | 0.00 | 59 | 1014.0 |
| 20260831024957 | 85 | 97 | 0.0 | 3.0 | 0.00 | 0.00 | 0.00 | 59 | 1014.0 |
| 20260831024855 | 85 | 97 | 0.0 | 3.0 | 0.00 | 0.00 | 0.00 | 59 | 1014.0 |
| 20260831024758 | 85 | 97 | 1.0 | 3.0 | 0.00 | 0.00 | 0.00 | 59 | 1014.0 |
| 20260831024657 | 85 | 97 | 1.0 | 3.0 | 0.00 | 0.00 | 0.00 | 59 | 1014.0 |
| 20260831024558 | 85 | 97 | 0.0 | 2.0 | 0.00 | 0.00 | 0.00 | 60 | 1014.0 |
| 20260831024456 | 85 | 97 | 1.0 | 2.0 | 0.00 | 0.00 | 0.00 | 60 | 1014.0 |
| 20260831024356 | 85 | 97 | 0.0 | 2.0 | 0.00 | 0.00 | 0.00 | 60 | 1014.0 |
| 20260831024257 | 85 | 97 | 0.0 | 2.0 | 0.00 | 0.00 | 0.00 | 60 | 1014.0 |
| 20260831024158 | 85 | 97 | 0.0 | 1.0 | 0.00 | 0.00 | 0.00 | 60 | 1013.9 |
| 20260831023957 | 85 | 97 | 0.0 | 3.0 | 0.00 | 0.00 | 0.00 | 60 | 1013.9 |
| 20260831023857 | 85 | 97 | 0.0 | 3.0 | 0.00 | 0.00 | 0.00 | 61 | 1013.8 |
| 20260831023758 | 85 | 97 | 0.0 | 3.0 | 0.00 | 0.00 | 0.00 | 61 | 1013.8 |
| 20260831023655 | 85 | 97 | 0.0 | 3.0 | 0.00 | 0.00 | 0.00 | 60 | 1013.8 |
| 20260831023557 | 85 | 97 | 0.0 | 3.0 | 0.00 | 0.00 | 0.00 | 61 | 1013.8 |
| 20260831023458 | 85 | 97 | 0.0 | 3.0 | 0.00 | 0.00 | 0.00 | 61 | 1013.8 |
| 20260831023256 | 85 | 97 | 0.0 | 3.0 | 0.00 | 0.00 | 0.00 | 61 | 1013.8 |
| 20260831023157 | 85 | 97 | 1.0 | 3.0 | 0.00 | 0.00 | 0.00 | 61 | 1013.7 |
| 20260831023058 | 85 | 97 | 0.0 | 2.0 | 0.00 | 0.00 | 0.00 | 61 | 1013.8 |
| 20260831022959 | 85 | 97 | 0.0 | 2.0 | 0.00 | 0.00 | 0.00 | 61 | 1013.7 |
| 20260831022858 | 85 | 97 | 0.0 | 2.0 | 0.00 | 0.00 | 0.00 | 61 | 1013.7 |
| 20260831022756 | 85 | 97 | 0.0 | 2.0 | 0.00 | 0.00 | 0.00 | 61 | 1013.7 |
| 20260831022555 | 85 | 97 | 0.0 | 2.0 | 0.00 | 0.00 | 0.00 | 61 | 1013.7 |
| 20260831022455 | 85 | 97 | 0.0 | 3.0 | 0.00 | 0.00 | 0.00 | 62 | 1013.7 |
| 20260831022257 | 86 | 97 | 0.0 | 3.0 | 0.00 | 0.00 | 0.00 | 62 | 1013.7 |
| 20260831022158 | 86 | 96 | 0.0 | 3.0 | 0.00 | 0.00 | 0.00 | 62 | 1013.7 |
| 20260831022056 | 86 | 96 | 0.0 | 3.0 | 0.00 | 0.00 | 0.00 | 62 | 1013.7 |
| 20260831021957 | 86 | 96 | 0.0 | 3.0 | 0.00 | 0.00 | 0.00 | 62 | 1013.7 |
| 20260831021857 | 86 | 96 | 0.0 | 3.0 | 0.00 | 0.00 | 0.00 | 62 | 1013.7 |
| 20260831021657 | 86 | 96 | 0.0 | 3.0 | 0.00 | 0.00 | 0.00 | 62 | 1013.6 |
| 20260831021556 | 86 | 96 | 2.0 | 3.0 | 0.00 | 0.00 | 0.00 | 62 | 1013.6 |
| 20260831021358 | 86 | 96 | 0.0 | 3.0 | 0.00 | 0.00 | 0.00 | 62 | 1013.6 |
| 20260831021156 | 86 | 96 | 0.0 | 3.0 | 0.00 | 0.00 | 0.00 | 62 | 1013.5 |
| 20260831021057 | 86 | 96 | 0.0 | 2.0 | 0.00 | 0.00 | 0.00 | 63 | 1013.5 |
| 20260831020959 | 86 | 96 | 0.0 | 2.0 | 0.00 | 0.00 | 0.00 | 63 | 1013.5 |
| 20260831020757 | 86 | 96 | 0.0 | 2.0 | 0.00 | 0.00 | 0.00 | 63 | 1013.4 |
| 20260831020656 | 86 | 96 | 0.0 | 2.0 | 0.00 | 0.00 | 0.00 | 63 | 1013.5 |
| 20260831020558 | 86 | 96 | 0.0 | 2.0 | 0.00 | 0.00 | 0.00 | 63 | 1013.4 |
| 20260831020458 | 86 | 96 | 0.0 | 2.0 | 0.00 | 0.00 | 0.00 | 63 | 1013.4 |
| 20260831020255 | 86 | 96 | 0.0 | 2.0 | 0.00 | 0.00 | 0.00 | 63 | 1013.4 |
| 20260831020158 | 86 | 96 | 0.0 | 2.0 | 0.00 | 0.00 | 0.00 | 63 | 1013.4 |
| 20260831020057 | 86 | 96 | 0.0 | 2.0 | 0.00 | 0.00 | 0.00 | 63 | 1013.4 |
| 20260831015856 | 86 | 96 | 0.0 | 2.0 | 0.00 | 0.00 | 0.00 | 63 | 1013.4 |
| 20260831015557 | 86 | 96 | 0.0 | 2.0 | 0.00 | 0.00 | 0.00 | 63 | 1013.3 |
| 20260831015458 | 86 | 96 | 1.0 | 2.0 | 0.00 | 0.00 | 0.00 | 63 | 1013.4 |
| 20260831015357 | 87 | 96 | 0.0 | 2.0 | 0.00 | 0.00 | 0.00 | 63 | 1013.4 |
| 20260831015257 | 87 | 96 | 0.0 | 2.0 | 0.00 | 0.00 | 0.00 | 63 | 1013.4 |
| 20260831015157 | 87 | 96 | 0.0 | 2.0 | 0.00 | 0.00 | 0.00 | 63 | 1013.3 |
| 20260831015057 | 87 | 96 | 0.0 | 2.0 | 0.00 | 0.00 | 0.00 | 63 | 1013.3 |
| 20260831014959 | 87 | 96 | 0.0 | 2.0 | 0.00 | 0.00 | 0.00 | 63 | 1013.3 |
| 20260831014857 | 87 | 96 | 0.0 | 2.0 | 0.00 | 0.00 | 0.00 | 63 | 1013.3 |
| 20260831014656 | 87 | 96 | 0.0 | 2.0 | 0.00 | 0.00 | 0.00 | 64 | 1013.3 |
| 20260831014557 | 87 | 96 | 1.0 | 2.0 | 0.00 | 0.00 | 0.00 | 64 | 1013.3 |
| 20260831014457 | 87 | 96 | 0.0 | 5.0 | 0.00 | 0.00 | 0.00 | 64 | 1013.3 |
| 20260831014358 | 87 | 96 | 2.0 | 5.0 | 0.00 | 0.00 | 0.00 | 64 | 1013.3 |
| 20260831014256 | 87 | 96 | 0.0 | 5.0 | 0.00 | 0.00 | 0.00 | 64 | 1013.4 |
| 20260831014157 | 87 | 96 | 0.0 | 5.0 | 0.00 | 0.00 | 0.00 | 64 | 1013.3 |
| 20260831014057 | 87 | 96 | 0.0 | 5.0 | 0.00 | 0.00 | 0.00 | 64 | 1013.4 |
| 20260831013959 | 87 | 96 | 0.0 | 5.0 | 0.00 | 0.00 | 0.00 | 64 | 1013.4 |
| 20260831013757 | 87 | 96 | 0.0 | 5.0 | 0.00 | 0.00 | 0.00 | 64 | 1013.4 |
| 20260831013657 | 87 | 96 | 0.0 | 5.0 | 0.00 | 0.00 | 0.00 | 64 | 1013.3 |
| 20260831013157 | 87 | 96 | 0.0 | 2.0 | 0.00 | 0.00 | 0.00 | 64 | 1013.3 |
| 20260831013056 | 87 | 96 | 1.0 | 2.0 | 0.00 | 0.00 | 0.00 | 64 | 1013.4 |
| 20260831012857 | 87 | 96 | 0.0 | 2.0 | 0.00 | 0.00 | 0.00 | 64 | 1013.3 |
| 20260831012758 | 87 | 96 | 0.0 | 2.0 | 0.00 | 0.00 | 0.00 | 64 | 1013.3 |
| 20260831012658 | 87 | 96 | 0.0 | 2.0 | 0.00 | 0.00 | 0.00 | 64 | 1013.3 |
| 20260831012557 | 88 | 96 | 0.0 | 2.0 | 0.00 | 0.00 | 0.00 | 63 | 1013.3 |
| 20260831012457 | 88 | 96 | 0.0 | 2.0 | 0.00 | 0.00 | 0.00 | 63 | 1013.3 |
| 20260831012357 | 88 | 96 | 0.0 | 2.0 | 0.00 | 0.00 | 0.00 | 63 | 1013.3 |
| 20260831012257 | 88 | 96 | 0.0 | 2.0 | 0.00 | 0.00 | 0.00 | 63 | 1013.3 |
| 20260831012057 | 88 | 96 | 0.0 | 2.0 | 0.00 | 0.00 | 0.00 | 63 | 1013.2 |
| 20260831011959 | 88 | 96 | 0.0 | 2.0 | 0.00 | 0.00 | 0.00 | 63 | 1013.2 |
| 20260831011857 | 88 | 96 | 1.0 | 2.0 | 0.00 | 0.00 | 0.00 | 63 | 1013.2 |
| 20260831011757 | 88 | 96 | 0.0 | 2.0 | 0.00 | 0.00 | 0.00 | 63 | 1013.3 |
| 20260831011657 | 88 | 96 | 0.0 | 2.0 | 0.00 | 0.00 | 0.00 | 63 | 1013.2 |
| 20260831011557 | 88 | 96 | 0.0 | 2.0 | 0.00 | 0.00 | 0.00 | 63 | 1013.2 |
| 20260831011457 | 88 | 96 | 0.0 | 2.0 | 0.00 | 0.00 | 0.00 | 63 | 1013.2 |
| 20260831011357 | 88 | 96 | 0.0 | 2.0 | 0.00 | 0.00 | 0.00 | 63 | 1013.2 |
| 20260831011257 | 88 | 96 | 0.0 | 2.0 | 0.00 | 0.00 | 0.00 | 63 | 1013.2 |
| 20260831011157 | 88 | 96 | 0.0 | 2.0 | 0.00 | 0.00 | 0.00 | 63 | 1013.2 |
| 20260831011057 | 88 | 96 | 1.0 | 2.0 | 0.00 | 0.00 | 0.00 | 62 | 1013.2 |
| 20260831010958 | 88 | 96 | 0.0 | 2.0 | 0.00 | 0.00 | 0.00 | 62 | 1013.2 |
| 20260831010856 | 88 | 96 | 0.0 | 2.0 | 0.00 | 0.00 | 0.00 | 62 | 1013.1 |
| 20260831010657 | 88 | 96 | 0.0 | 3.0 | 0.00 | 0.00 | 0.00 | 62 | 1013.2 |
| 20260831010557 | 89 | 96 | 0.0 | 3.0 | 0.00 | 0.00 | 0.00 | 62 | 1013.2 |
| 20260831010457 | 89 | 96 | 0.0 | 3.0 | 0.00 | 0.00 | 0.00 | 62 | 1013.2 |
| 20260831010257 | 89 | 96 | 0.0 | 3.0 | 0.00 | 0.00 | 0.00 | 62 | 1013.2 |
| 20260831010157 | 89 | 96 | 0.0 | 3.0 | 0.00 | 0.00 | 0.00 | 62 | 1013.1 |
| 20260831010057 | 89 | 96 | 0.0 | 3.0 | 0.00 | 0.00 | 0.00 | 62 | 1013.1 |
| 20260831010005 | 89 | 96 | 0.0 | 3.0 | 0.00 | 0.00 | 0.00 | 61 | 1013.1 |
| 20260831005855 | 89 | 96 | 0.0 | 3.0 | 0.00 | 0.00 | 0.00 | 61 | 1013.1 |
| 20260831005756 | 89 | 96 | 0.0 | 3.0 | 0.00 | 0.00 | 0.00 | 61 | 1013.1 |
| 20260831005657 | 89 | 96 | 1.0 | 3.0 | 0.00 | 0.00 | 0.00 | 61 | 1013.1 |
| 20260831005558 | 89 | 92 | 0.0 | 3.0 | 0.00 | 0.00 | 0.00 | 61 | 1013.2 |
| 20260831005458 | 89 | 92 | 1.0 | 3.0 | 0.00 | 0.00 | 0.00 | 61 | 1013.2 |
| 20260831005358 | 89 | 91 | 0.0 | 3.0 | 0.00 | 0.00 | 0.00 | 61 | 1013.1 |
| 20260831005257 | 89 | 91 | 2.0 | 3.0 | 0.00 | 0.00 | 0.00 | 61 | 1013.2 |
| 20260831005158 | 89 | 91 | 1.0 | 4.0 | 0.00 | 0.00 | 0.00 | 61 | 1013.1 |
| 20260831005055 | 89 | 91 | 0.0 | 4.0 | 0.00 | 0.00 | 0.00 | 61 | 1013.2 |
| 20260831004957 | 89 | 91 | 0.0 | 4.0 | 0.00 | 0.00 | 0.00 | 61 | 1013.1 |
| 20260831004857 | 89 | 91 | 1.0 | 4.0 | 0.00 | 0.00 | 0.00 | 60 | 1013.2 |
| 20260831004757 | 89 | 91 | 0.0 | 4.0 | 0.00 | 0.00 | 0.00 | 60 | 1013.1 |
| 20260831004658 | 90 | 91 | 1.0 | 4.0 | 0.00 | 0.00 | 0.00 | 60 | 1013.1 |
| 20260831004556 | 90 | 91 | 0.0 | 4.0 | 0.00 | 0.00 | 0.00 | 60 | 1013.1 |
| 20260831004455 | 90 | 91 | 1.0 | 4.0 | 0.00 | 0.00 | 0.00 | 60 | 1013.1 |
| 20260831004357 | 90 | 91 | 0.0 | 4.0 | 0.00 | 0.00 | 0.00 | 60 | 1013.0 |
| 20260831004257 | 90 | 91 | 4.0 | 4.0 | 0.00 | 0.00 | 0.00 | 60 | 1013.0 |
| 20260831004156 | 90 | 91 | 1.0 | 4.0 | 0.00 | 0.00 | 0.00 | 60 | 1013.0 |
| 20260831004057 | 90 | 91 | 0.0 | 4.0 | 0.00 | 0.00 | 0.00 | 60 | 1013.0 |
| 20260831003958 | 90 | 91 | 1.0 | 4.0 | 0.00 | 0.00 | 0.00 | 60 | 1013.0 |
| 20260831003857 | 90 | 91 | 0.0 | 4.0 | 0.00 | 0.00 | 0.00 | 60 | 1013.0 |
| 20260831003756 | 90 | 91 | 1.0 | 4.0 | 0.00 | 0.00 | 0.00 | 60 | 1013.0 |
| 20260831003655 | 90 | 91 | 1.0 | 4.0 | 0.00 | 0.00 | 0.00 | 60 | 1013.0 |
| 20260831003555 | 90 | 91 | 0.0 | 4.0 | 0.00 | 0.00 | 0.00 | 60 | 1012.9 |
| 20260831003456 | 90 | 91 | 0.0 | 4.0 | 0.00 | 0.00 | 0.00 | 60 | 1012.9 |
| 20260831003356 | 90 | 91 | 3.0 | 4.0 | 0.00 | 0.00 | 0.00 | 60 | 1013.0 |
| 20260831003255 | 91 | 118 | 0.0 | 4.0 | 0.00 | 0.00 | 0.00 | 60 | 1012.9 |
| 20260831003158 | 91 | 119 | 1.0 | 4.0 | 0.00 | 0.00 | 0.00 | 60 | 1013.0 |
| 20260831003057 | 91 | 119 | 1.0 | 4.0 | 0.00 | 0.00 | 0.00 | 59 | 1013.0 |
| 20260831002959 | 91 | 119 | 0.0 | 4.0 | 0.00 | 0.00 | 0.00 | 59 | 1012.9 |
| 20260831002857 | 91 | 117 | 1.0 | 4.0 | 0.00 | 0.00 | 0.00 | 59 | 1012.9 |
| 20260831002756 | 91 | 117 | 2.0 | 4.0 | 0.00 | 0.00 | 0.00 | 59 | 1012.9 |
| 20260831002657 | 91 | 93 | 1.0 | 4.0 | 0.00 | 0.00 | 0.00 | 59 | 1012.9 |
| 20260831002558 | 91 | 93 | 2.0 | 4.0 | 0.00 | 0.00 | 0.00 | 59 | 1012.9 |
| 20260831002457 | 91 | 71 | 0.0 | 4.0 | 0.00 | 0.00 | 0.00 | 59 | 1012.9 |
| 20260831002357 | 91 | 71 | 1.0 | 4.0 | 0.00 | 0.00 | 0.00 | 58 | 1012.9 |
| 20260831002255 | 91 | 71 | 3.0 | 4.0 | 0.00 | 0.00 | 0.00 | 58 | 1012.9 |
| 20260831002057 | 91 | 153 | 1.0 | 5.0 | 0.00 | 0.00 | 0.00 | 58 | 1012.9 |
| 20260831001857 | 92 | 154 | 1.0 | 5.0 | 0.00 | 0.00 | 0.00 | 58 | 1012.8 |
| 20260831001758 | 92 | 125 | 0.0 | 5.0 | 0.00 | 0.00 | 0.00 | 57 | 1012.8 |
| 20260831001657 | 92 | 125 | 0.0 | 5.0 | 0.00 | 0.00 | 0.00 | 57 | 1012.7 |
| 20260831001557 | 92 | 125 | 1.0 | 5.0 | 0.00 | 0.00 | 0.00 | 57 | 1012.8 |
| 20260831001357 | 92 | 125 | 1.0 | 5.0 | 0.00 | 0.00 | 0.00 | 57 | 1012.8 |
| 20260831001255 | 92 | 125 | 2.0 | 5.0 | 0.00 | 0.00 | 0.00 | 57 | 1012.8 |
| 20260831001157 | 92 | 139 | 1.0 | 5.0 | 0.00 | 0.00 | 0.00 | 57 | 1012.8 |
| 20260831001056 | 92 | 139 | 0.0 | 5.0 | 0.00 | 0.00 | 0.00 | 57 | 1012.8 |
| 20260831000959 | 92 | 139 | 1.0 | 5.0 | 0.00 | 0.00 | 0.00 | 57 | 1012.9 |
| 20260831000857 | 92 | 125 | 2.0 | 5.0 | 0.00 | 0.00 | 0.00 | 56 | 1012.9 |
| 20260831000758 | 92 | 125 | 0.0 | 5.0 | 0.00 | 0.00 | 0.00 | 56 | 1012.9 |
| 20260831000657 | 92 | 125 | 2.0 | 5.0 | 0.00 | 0.00 | 0.00 | 56 | 1012.8 |
| 20260831000556 | 92 | 125 | 1.0 | 5.0 | 0.00 | 0.00 | 0.00 | 56 | 1012.8 |
| 20260831000457 | 93 | 125 | 1.0 | 5.0 | 0.00 | 0.00 | 0.00 | 56 | 1012.8 |
| 20260831000359 | 93 | 125 | 2.0 | 5.0 | 0.00 | 0.00 | 0.00 | 56 | 1012.8 |
| 20260831000257 | 93 | 137 | 3.0 | 5.0 | 0.00 | 0.00 | 0.00 | 55 | 1012.8 |
| 20260831000157 | 93 | 130 | 0.0 | 5.0 | 0.00 | 0.00 | 0.00 | 55 | 1012.8 |
| 20260831000057 | 93 | 130 | 1.0 | 5.0 | 0.00 | 0.00 | 0.00 | 55 | 1012.7 |
| 20260831000004 | 93 | 128 | 2.0 | 5.0 | 0.00 | 0.00 | 0.00 | 55 | 1012.7 |
| 20260830235856 | 93 | 127 | 3.0 | 5.0 | 0.00 | 0.00 | 0.00 | 55 | 1012.7 |
| 20260830235757 | 93 | 127 | 0.0 | 5.0 | 0.00 | 0.00 | 0.00 | 55 | 1012.8 |
| 20260830235657 | 93 | 127 | 0.0 | 5.0 | 0.00 | 0.00 | 0.00 | 54 | 1012.8 |
| 20260830235558 | 93 | 127 | 2.0 | 5.0 | 0.00 | 0.00 | 0.00 | 54 | 1012.7 |
| 20260830235455 | 93 | 127 | 0.0 | 5.0 | 0.00 | 0.00 | 0.00 | 54 | 1012.7 |
| 20260830235255 | 94 | 74 | 1.0 | 4.0 | 0.00 | 0.00 | 0.00 | 54 | 1012.8 |
| 20260830235157 | 94 | 124 | 0.0 | 4.0 | 0.00 | 0.00 | 0.00 | 54 | 1012.7 |
| 20260830234857 | 94 | 137 | 0.0 | 5.0 | 0.00 | 0.00 | 0.00 | 53 | 1012.7 |
| 20260830234757 | 94 | 136 | 2.0 | 5.0 | 0.00 | 0.00 | 0.00 | 53 | 1012.7 |
| 20260830234656 | 94 | 136 | 0.0 | 5.0 | 0.00 | 0.00 | 0.00 | 53 | 1012.7 |
| 20260830234457 | 94 | 136 | 3.0 | 5.0 | 0.00 | 0.00 | 0.00 | 53 | 1012.7 |
| 20260830234157 | 94 | 131 | 1.0 | 5.0 | 0.00 | 0.00 | 0.00 | 52 | 1012.6 |
| 20260830234057 | 94 | 137 | 1.0 | 4.0 | 0.00 | 0.00 | 0.00 | 52 | 1012.7 |
| 20260830233959 | 95 | 154 | 1.0 | 4.0 | 0.00 | 0.00 | 0.00 | 52 | 1012.7 |
| 20260830233757 | 95 | 113 | 0.0 | 5.0 | 0.00 | 0.00 | 0.00 | 52 | 1012.7 |
| 20260830233656 | 95 | 113 | 0.0 | 5.0 | 0.00 | 0.00 | 0.00 | 52 | 1012.7 |
| 20260830233557 | 95 | 113 | 0.0 | 5.0 | 0.00 | 0.00 | 0.00 | 52 | 1012.7 |
| 20260830233457 | 95 | 113 | 1.0 | 5.0 | 0.00 | 0.00 | 0.00 | 51 | 1012.6 |
| 20260830233255 | 95 | 113 | 1.0 | 5.0 | 0.00 | 0.00 | 0.00 | 51 | 1012.6 |
| 20260830233156 | 95 | 112 | 2.0 | 5.0 | 0.00 | 0.00 | 0.00 | 51 | 1012.5 |
| 20260830233057 | 95 | 114 | 2.0 | 5.0 | 0.00 | 0.00 | 0.00 | 50 | 1012.5 |
| 20260830232957 | 95 | 128 | 4.0 | 5.0 | 0.00 | 0.00 | 0.00 | 50 | 1012.5 |
| 20260830232756 | 95 | 127 | 0.0 | 5.0 | 0.00 | 0.00 | 0.00 | 50 | 1012.5 |
| 20260830232657 | 95 | 127 | 1.0 | 5.0 | 0.00 | 0.00 | 0.00 | 50 | 1012.5 |
| 20260830232456 | 95 | 127 | 0.0 | 5.0 | 0.00 | 0.00 | 0.00 | 50 | 1012.5 |
| 20260830232355 | 96 | 127 | 1.0 | 5.0 | 0.00 | 0.00 | 0.00 | 50 | 1012.5 |
| 20260830232255 | 96 | 113 | 2.0 | 5.0 | 0.00 | 0.00 | 0.00 | 49 | 1012.5 |
| 20260830232158 | 96 | 113 | 1.0 | 5.0 | 0.00 | 0.00 | 0.00 | 49 | 1012.5 |
| 20260830232058 | 96 | 91 | 1.0 | 4.0 | 0.00 | 0.00 | 0.00 | 49 | 1012.4 |
| 20260830231959 | 96 | 91 | 0.0 | 4.0 | 0.00 | 0.00 | 0.00 | 49 | 1012.4 |
| 20260830231857 | 96 | 91 | 1.0 | 4.0 | 0.00 | 0.00 | 0.00 | 49 | 1012.4 |
| 20260830231757 | 96 | 91 | 0.0 | 6.0 | 0.00 | 0.00 | 0.00 | 49 | 1012.4 |
| 20260830231457 | 96 | 87 | 1.0 | 6.0 | 0.00 | 0.00 | 0.00 | 49 | 1012.4 |
| 20260830231357 | 96 | 87 | 0.0 | 6.0 | 0.00 | 0.00 | 0.00 | 49 | 1012.4 |
| 20260830231157 | 96 | 87 | 0.0 | 6.0 | 0.00 | 0.00 | 0.00 | 48 | 1012.4 |
| 20260830231057 | 96 | 87 | 1.0 | 6.0 | 0.00 | 0.00 | 0.00 | 48 | 1012.5 |
| 20260830230959 | 96 | 111 | 0.0 | 6.0 | 0.00 | 0.00 | 0.00 | 48 | 1012.4 |
| 20260830230757 | 97 | 179 | 0.0 | 6.0 | 0.00 | 0.00 | 0.00 | 48 | 1012.5 |
| 20260830230655 | 97 | 116 | 1.0 | 6.0 | 0.00 | 0.00 | 0.00 | 48 | 1012.5 |
| 20260830230358 | 97 | 114 | 1.0 | 6.0 | 0.00 | 0.00 | 0.00 | 48 | 1012.4 |
| 20260830230001 | 97 | 114 | 3.0 | 6.0 | 0.00 | 0.00 | 0.00 | 48 | 1012.4 |
| 20260830225855 | 97 | 120 | 0.0 | 6.0 | 0.00 | 0.00 | 0.00 | 47 | 1012.4 |
| 20260830225756 | 97 | 123 | 2.0 | 6.0 | 0.00 | 0.00 | 0.00 | 47 | 1012.4 |
| 20260830225657 | 97 | 153 | 1.0 | 6.0 | 0.00 | 0.00 | 0.00 | 47 | 1012.4 |
| 20260830225556 | 97 | 153 | 1.0 | 6.0 | 0.00 | 0.00 | 0.00 | 47 | 1012.4 |
| 20260830225357 | 98 | 220 | 3.0 | 5.0 | 0.00 | 0.00 | 0.00 | 47 | 1012.4 |
| 20260830225257 | 98 | 119 | 1.0 | 4.0 | 0.00 | 0.00 | 0.00 | 47 | 1012.5 |
| 20260830225156 | 98 | 119 | 0.0 | 6.0 | 0.00 | 0.00 | 0.00 | 47 | 1012.4 |
| 20260830225055 | 98 | 119 | 0.0 | 6.0 | 0.00 | 0.00 | 0.00 | 47 | 1012.5 |
| 20260830224957 | 98 | 129 | 3.0 | 6.0 | 0.00 | 0.00 | 0.00 | 47 | 1012.5 |
| 20260830224857 | 98 | 115 | 0.0 | 6.0 | 0.00 | 0.00 | 0.00 | 46 | 1012.5 |
| 20260830224755 | 98 | 115 | 0.0 | 6.0 | 0.00 | 0.00 | 0.00 | 46 | 1012.4 |
| 20260830224655 | 98 | 115 | 1.0 | 6.0 | 0.00 | 0.00 | 0.00 | 46 | 1012.5 |
| 20260830224559 | 98 | 115 | 0.0 | 6.0 | 0.00 | 0.00 | 0.00 | 46 | 1012.5 |
| 20260830224356 | 98 | 115 | 3.0 | 6.0 | 0.00 | 0.00 | 0.00 | 45 | 1012.5 |
| 20260830224255 | 98 | 189 | 1.0 | 6.0 | 0.00 | 0.00 | 0.00 | 45 | 1012.5 |
| 20260830224158 | 98 | 104 | 0.0 | 6.0 | 0.00 | 0.00 | 0.00 | 45 | 1012.5 |
| 20260830224057 | 98 | 104 | 2.0 | 6.0 | 0.00 | 0.00 | 0.00 | 45 | 1012.5 |
| 20260830223959 | 98 | 104 | 0.0 | 6.0 | 0.00 | 0.00 | 0.00 | 45 | 1012.5 |
| 20260830223855 | 98 | 104 | 1.0 | 6.0 | 0.00 | 0.00 | 0.00 | 45 | 1012.4 |
| 20260830223758 | 98 | 119 | 1.0 | 6.0 | 0.00 | 0.00 | 0.00 | 45 | 1012.4 |
| 20260830223657 | 98 | 119 | 0.0 | 6.0 | 0.00 | 0.00 | 0.00 | 45 | 1012.4 |
| 20260830223456 | 98 | 169 | 3.0 | 6.0 | 0.00 | 0.00 | 0.00 | 45 | 1012.4 |
| 20260830223357 | 98 | 171 | 0.0 | 6.0 | 0.00 | 0.00 | 0.00 | 45 | 1012.4 |
| 20260830223257 | 98 | 171 | 0.0 | 6.0 | 0.00 | 0.00 | 0.00 | 45 | 1012.4 |
| 20260830223158 | 98 | 120 | 0.0 | 5.0 | 0.00 | 0.00 | 0.00 | 45 | 1012.4 |
| 20260830223055 | 98 | 120 | 0.0 | 5.0 | 0.00 | 0.00 | 0.00 | 45 | 1012.4 |
| 20260830222958 | 98 | 120 | 0.0 | 5.0 | 0.00 | 0.00 | 0.00 | 45 | 1012.4 |
| 20260830222857 | 98 | 120 | 0.0 | 6.0 | 0.00 | 0.00 | 0.00 | 45 | 1012.4 |
| 20260830222655 | 98 | 120 | 0.0 | 6.0 | 0.00 | 0.00 | 0.00 | 45 | 1012.4 |
| 20260830222556 | 98 | 123 | 3.0 | 6.0 | 0.00 | 0.00 | 0.00 | 45 | 1012.4 |
| 20260830222457 | 98 | 131 | 1.0 | 6.0 | 0.00 | 0.00 | 0.00 | 45 | 1012.4 |
| 20260830222358 | 98 | 131 | 0.0 | 6.0 | 0.00 | 0.00 | 0.00 | 45 | 1012.3 |
| 20260830222255 | 98 | 123 | 3.0 | 6.0 | 0.00 | 0.00 | 0.00 | 45 | 1012.4 |
| 20260830222156 | 98 | 116 | 2.0 | 8.0 | 0.00 | 0.00 | 0.00 | 44 | 1012.4 |
| 20260830222057 | 98 | 116 | 1.0 | 8.0 | 0.00 | 0.00 | 0.00 | 44 | 1012.3 |
| 20260830221959 | 99 | 103 | 0.0 | 8.0 | 0.00 | 0.00 | 0.00 | 44 | 1012.3 |
| 20260830221855 | 99 | 103 | 1.0 | 8.0 | 0.00 | 0.00 | 0.00 | 44 | 1012.3 |
| 20260830221755 | 99 | 114 | 1.0 | 8.0 | 0.00 | 0.00 | 0.00 | 44 | 1012.4 |
| 20260830221657 | 99 | 114 | 2.0 | 8.0 | 0.00 | 0.00 | 0.00 | 43 | 1012.3 |
| 20260830221557 | 99 | 114 | 1.0 | 8.0 | 0.00 | 0.00 | 0.00 | 43 | 1012.3 |
| 20260830221455 | 99 | 114 | 2.0 | 8.0 | 0.00 | 0.00 | 0.00 | 43 | 1012.3 |
| 20260830221355 | 99 | 114 | 5.0 | 5.0 | 0.00 | 0.00 | 0.00 | 42 | 1012.3 |
| 20260830221158 | 99 | 47 | 0.0 | 3.0 | 0.00 | 0.00 | 0.00 | 42 | 1012.4 |
| 20260830221056 | 99 | 47 | 1.0 | 3.0 | 0.00 | 0.00 | 0.00 | 42 | 1012.4 |
| 20260830220957 | 99 | 47 | 1.0 | 3.0 | 0.00 | 0.00 | 0.00 | 42 | 1012.4 |
| 20260830220758 | 99 | 47 | 1.0 | 3.0 | 0.00 | 0.00 | 0.00 | 42 | 1012.4 |
| 20260830220657 | 99 | 47 | 1.0 | 4.0 | 0.00 | 0.00 | 0.00 | 42 | 1012.4 |
| 20260830220457 | 99 | 110 | 1.0 | 4.0 | 0.00 | 0.00 | 0.00 | 42 | 1012.4 |
| 20260830220358 | 99 | 110 | 0.0 | 4.0 | 0.00 | 0.00 | 0.00 | 42 | 1012.4 |
| 20260830220156 | 99 | 110 | 1.0 | 4.0 | 0.00 | 0.00 | 0.00 | 43 | 1012.4 |
| 20260830220055 | 99 | 110 | 1.0 | 4.0 | 0.00 | 0.00 | 0.00 | 42 | 1012.4 |
| 20260830220001 | 99 | 110 | 2.0 | 4.0 | 0.00 | 0.00 | 0.00 | 42 | 1012.4 |
| 20260830215857 | 99 | 110 | 1.0 | 4.0 | 0.00 | 0.00 | 0.00 | 42 | 1012.4 |
| 20260830215455 | 99 | 85 | 0.0 | 4.0 | 0.00 | 0.00 | 0.00 | 44 | 1012.3 |
| 20260830215355 | 99 | 85 | 1.0 | 4.0 | 0.00 | 0.00 | 0.00 | 45 | 1012.3 |
| 20260830215255 | 99 | 85 | 2.0 | 4.0 | 0.00 | 0.00 | 0.00 | 45 | 1012.3 |
| 20260830215158 | 99 | 85 | 1.0 | 3.0 | 0.00 | 0.00 | 0.00 | 45 | 1012.3 |
| 20260830215057 | 98 | 85 | 1.0 | 3.0 | 0.00 | 0.00 | 0.00 | 45 | 1012.3 |
| 20260830214957 | 98 | 85 | 0.0 | 3.0 | 0.00 | 0.00 | 0.00 | 45 | 1012.3 |
| 20260830214857 | 98 | 85 | 1.0 | 3.0 | 0.00 | 0.00 | 0.00 | 44 | 1012.3 |